Wetterdaten: Montag, 01.12.2014
Datum Zeit Temp. Aussen +5cm Feuchte Auss Luftdruck Regen Sonnenschein Regendauer Solar Windben
01.12.2014 00:00 3,2 C 2,2 C 93 % 1011,4 hPa 0,0 l/m 0 min 0 min 0 W/m 16,7 km/h (3 Bft)
01.12.2014 00:02 3,2 C 2,2 C 93 % 1011,4 hPa 0,0 l/m 0 min 0 min 0 W/m 18,8 km/h (3 Bft)
01.12.2014 00:05 3,2 C 2,2 C 93 % 1011,4 hPa 0,0 l/m 0 min 0 min 0 W/m 18,8 km/h (3 Bft)
01.12.2014 00:06 3,2 C 2,2 C 93 % 1011,5 hPa 0,0 l/m 0 min 0 min 0 W/m 18,8 km/h (3 Bft)
01.12.2014 00:08 3,2 C 2,2 C 93 % 1011,5 hPa 0,0 l/m 0 min 0 min 0 W/m 12,6 km/h (3 Bft)
01.12.2014 00:10 3,2 C 2,2 C 93 % 1011,5 hPa 0,0 l/m 0 min 0 min 0 W/m 6,3 km/h (2 Bft)
01.12.2014 00:12 3,2 C 2,2 C 93 % 1011,4 hPa 0,0 l/m 0 min 0 min 0 W/m 14,6 km/h (3 Bft)
01.12.2014 00:14 3,2 C 2,2 C 93 % 1011,4 hPa 0,0 l/m 0 min 0 min 0 W/m 10,5 km/h (2 Bft)
01.12.2014 00:16 3,2 C 2,2 C 93 % 1011,3 hPa 0,0 l/m 0 min 0 min 0 W/m 14,6 km/h (3 Bft)
01.12.2014 00:18 3,2 C 2,2 C 93 % 1011,3 hPa 0,0 l/m 0 min 0 min 0 W/m 18,8 km/h (3 Bft)
01.12.2014 00:20 3,2 C 2,2 C 93 % 1011,3 hPa 0,0 l/m 0 min 0 min 0 W/m 18,8 km/h (3 Bft)
01.12.2014 00:22 3,2 C 2,2 C 93 % 1011,3 hPa 0,0 l/m 0 min 0 min 0 W/m 12,6 km/h (3 Bft)
01.12.2014 00:24 3,2 C 2,2 C 93 % 1011,3 hPa 0,0 l/m 0 min 0 min 0 W/m 10,5 km/h (2 Bft)
01.12.2014 00:26 3,2 C 2,2 C 93 % 1011,3 hPa 0,0 l/m 0 min 0 min 0 W/m 12,6 km/h (3 Bft)
01.12.2014 00:28 3,2 C 2,2 C 93 % 1011,3 hPa 0,0 l/m 0 min 0 min 0 W/m 14,6 km/h (3 Bft)
01.12.2014 00:30 3,1 C 2,2 C 93 % 1011,3 hPa 0,0 l/m 0 min 0 min 0 W/m 18,8 km/h (3 Bft)
01.12.2014 00:32 3,1 C 2,2 C 93 % 1011,3 hPa 0,0 l/m 0 min 0 min 0 W/m 14,6 km/h (3 Bft)
01.12.2014 00:34 3,2 C 2,2 C 93 % 1011,3 hPa 0,0 l/m 0 min 0 min 0 W/m 14,6 km/h (3 Bft)
01.12.2014 00:36 3,2 C 2,2 C 93 % 1011,2 hPa 0,0 l/m 0 min 0 min 0 W/m 14,6 km/h (3 Bft)
01.12.2014 00:38 3,2 C 2,2 C 93 % 1011,2 hPa 0,0 l/m 0 min 0 min 0 W/m 12,6 km/h (3 Bft)
01.12.2014 00:40 3,2 C 2,2 C 93 % 1011,2 hPa 0,0 l/m 0 min 0 min 0 W/m 14,6 km/h (3 Bft)
01.12.2014 00:42 3,2 C 2,2 C 93 % 1011,2 hPa 0,0 l/m 0 min 0 min 0 W/m 14,6 km/h (3 Bft)
01.12.2014 00:44 3,2 C 2,2 C 93 % 1011,2 hPa 0,0 l/m 0 min 0 min 0 W/m 14,6 km/h (3 Bft)
01.12.2014 00:46 3,2 C 2,2 C 93 % 1011,2 hPa 0,0 l/m 0 min 0 min 0 W/m 18,8 km/h (3 Bft)
01.12.2014 00:48 3,2 C 2,2 C 93 % 1011,2 hPa 0,0 l/m 0 min 0 min 0 W/m 16,7 km/h (3 Bft)
01.12.2014 00:50 3,2 C 2,2 C 93 % 1011,1 hPa 0,0 l/m 0 min 0 min 0 W/m 14,6 km/h (3 Bft)
01.12.2014 00:52 3,2 C 2,2 C 93 % 1011,1 hPa 0,0 l/m 0 min 0 min 0 W/m 10,5 km/h (2 Bft)
01.12.2014 00:54 3,2 C 2,2 C 93 % 1011,1 hPa 0,0 l/m 0 min 0 min 0 W/m 23,0 km/h (4 Bft)
01.12.2014 00:56 3,2 C 2,2 C 93 % 1011,1 hPa 0,0 l/m 0 min 0 min 0 W/m 16,7 km/h (3 Bft)
01.12.2014 00:58 3,2 C 2,2 C 93 % 1011,2 hPa 0,0 l/m 0 min 0 min 0 W/m 16,7 km/h (3 Bft)
01.12.2014 01:00 3,2 C 2,2 C 93 % 1011,1 hPa 0,0 l/m 0 min 0 min 0 W/m 20,9 km/h (4 Bft)
01.12.2014 01:02 3,2 C 2,2 C 93 % 1011,1 hPa 0,0 l/m 0 min 0 min 0 W/m 20,9 km/h (4 Bft)
01.12.2014 01:04 3,2 C 2,2 C 93 % 1011,1 hPa 0,0 l/m 0 min 0 min 0 W/m 16,7 km/h (3 Bft)
01.12.2014 01:06 3,2 C 2,2 C 93 % 1011,0 hPa 0,0 l/m 0 min 0 min 0 W/m 14,6 km/h (3 Bft)
01.12.2014 01:08 3,2 C 2,2 C 93 % 1011,0 hPa 0,0 l/m 0 min 0 min 0 W/m 18,8 km/h (3 Bft)
01.12.2014 01:10 3,2 C 2,2 C 93 % 1011,0 hPa 0,0 l/m 0 min 0 min 0 W/m 18,8 km/h (3 Bft)
01.12.2014 01:12 3,2 C 2,2 C 93 % 1011,0 hPa 0,0 l/m 0 min 0 min 0 W/m 12,6 km/h (3 Bft)
01.12.2014 01:14 3,2 C 2,2 C 93 % 1011,0 hPa 0,0 l/m 0 min 0 min 0 W/m 16,7 km/h (3 Bft)
01.12.2014 01:16 3,2 C 2,2 C 93 % 1011,0 hPa 0,0 l/m 0 min 0 min 0 W/m 10,5 km/h (2 Bft)
01.12.2014 01:18 3,2 C 2,2 C 93 % 1011,0 hPa 0,0 l/m 0 min 0 min 0 W/m 14,6 km/h (3 Bft)
01.12.2014 01:20 3,2 C 2,2 C 93 % 1010,9 hPa 0,0 l/m 0 min 0 min 0 W/m 14,6 km/h (3 Bft)
01.12.2014 01:22 3,1 C 2,2 C 93 % 1010,9 hPa 0,0 l/m 0 min 0 min 0 W/m 14,6 km/h (3 Bft)
01.12.2014 01:24 3,1 C 2,2 C 93 % 1010,9 hPa 0,0 l/m 0 min 0 min 0 W/m 14,6 km/h (3 Bft)
01.12.2014 01:26 3,1 C 2,2 C 93 % 1010,9 hPa 0,0 l/m 0 min 0 min 0 W/m 20,9 km/h (4 Bft)
01.12.2014 01:28 3,1 C 2,2 C 93 % 1010,9 hPa 0,0 l/m 0 min 0 min 0 W/m 14,6 km/h (3 Bft)
01.12.2014 01:30 3,1 C 2,2 C 93 % 1010,9 hPa 0,0 l/m 0 min 0 min 0 W/m 14,6 km/h (3 Bft)
01.12.2014 01:32 3,1 C 2,2 C 93 % 1010,9 hPa 0,0 l/m 0 min 0 min 0 W/m 16,7 km/h (3 Bft)
01.12.2014 01:34 3,1 C 2,2 C 93 % 1010,9 hPa 0,0 l/m 0 min 0 min 0 W/m 12,6 km/h (3 Bft)
01.12.2014 01:36 3,1 C 2,2 C 93 % 1010,9 hPa 0,0 l/m 0 min 0 min 0 W/m 16,7 km/h (3 Bft)
01.12.2014 01:38 3,1 C 2,2 C 93 % 1010,8 hPa 0,0 l/m 0 min 0 min 0 W/m 18,8 km/h (3 Bft)
01.12.2014 01:40 3,1 C 2,2 C 93 % 1010,8 hPa 0,0 l/m 0 min 0 min 0 W/m 25,1 km/h (4 Bft)
01.12.2014 01:42 3,1 C 2,2 C 93 % 1010,7 hPa 0,0 l/m 0 min 0 min 0 W/m 23,0 km/h (4 Bft)
01.12.2014 01:44 3,1 C 2,2 C 94 % 1010,7 hPa 0,0 l/m 0 min 0 min 0 W/m 18,8 km/h (3 Bft)
01.12.2014 01:46 3,1 C 2,2 C 94 % 1010,6 hPa 0,0 l/m 0 min 0 min 0 W/m 14,6 km/h (3 Bft)
01.12.2014 01:48 3,1 C 2,2 C 94 % 1010,6 hPa 0,0 l/m 0 min 0 min 0 W/m 18,8 km/h (3 Bft)
01.12.2014 01:50 3,1 C 2,2 C 94 % 1010,6 hPa 0,0 l/m 0 min 0 min 0 W/m 14,6 km/h (3 Bft)
01.12.2014 01:52 3,1 C 2,2 C 94 % 1010,6 hPa 0,0 l/m 0 min 0 min 0 W/m 16,7 km/h (3 Bft)
01.12.2014 01:54 3,1 C 2,2 C 94 % 1010,6 hPa 0,0 l/m 0 min 0 min 0 W/m 8,4 km/h (2 Bft)
01.12.2014 01:56 3,1 C 2,2 C 94 % 1010,6 hPa 0,0 l/m 0 min 0 min 0 W/m 14,6 km/h (3 Bft)
01.12.2014 01:58 3,1 C 2,2 C 94 % 1010,5 hPa 0,0 l/m 0 min 0 min 0 W/m 16,7 km/h (3 Bft)
01.12.2014 02:00 3,1 C 2,2 C 94 % 1010,5 hPa 0,0 l/m 0 min 0 min 0 W/m 14,6 km/h (3 Bft)
01.12.2014 02:02 3,1 C 2,2 C 94 % 1010,5 hPa 0,0 l/m 0 min 0 min 0 W/m 14,6 km/h (3 Bft)
01.12.2014 02:04 3,1 C 2,2 C 94 % 1010,5 hPa 0,0 l/m 0 min 0 min 0 W/m 16,7 km/h (3 Bft)
01.12.2014 02:06 3,1 C 2,2 C 94 % 1010,5 hPa 0,0 l/m 0 min 0 min 0 W/m 14,6 km/h (3 Bft)
01.12.2014 02:08 3,1 C 2,2 C 94 % 1010,5 hPa 0,0 l/m 0 min 0 min 0 W/m 14,6 km/h (3 Bft)
01.12.2014 02:10 3,1 C 2,2 C 94 % 1010,6 hPa 0,0 l/m 0 min 0 min 0 W/m 10,5 km/h (2 Bft)
01.12.2014 02:12 3,1 C 2,2 C 94 % 1010,6 hPa 0,0 l/m 0 min 0 min 0 W/m 12,6 km/h (3 Bft)
01.12.2014 02:14 3,1 C 2,2 C 94 % 1010,6 hPa 0,0 l/m 0 min 0 min 0 W/m 16,7 km/h (3 Bft)
01.12.2014 02:16 3,1 C 2,2 C 94 % 1010,6 hPa 0,0 l/m 0 min 0 min 0 W/m 8,4 km/h (2 Bft)
01.12.2014 02:18 3,1 C 2,2 C 94 % 1010,6 hPa 0,0 l/m 0 min 0 min 0 W/m 18,8 km/h (3 Bft)
01.12.2014 02:20 3,1 C 2,2 C 94 % 1010,7 hPa 0,0 l/m 0 min 0 min 0 W/m 23,0 km/h (4 Bft)
01.12.2014 02:22 3,1 C 2,2 C 94 % 1010,7 hPa 0,0 l/m 0 min 0 min 0 W/m 23,0 km/h (4 Bft)
01.12.2014 02:24 3,1 C 2,2 C 94 % 1010,7 hPa 0,0 l/m 0 min 0 min 0 W/m 10,5 km/h (2 Bft)
01.12.2014 02:26 3,1 C 2,2 C 94 % 1010,7 hPa 0,0 l/m 0 min 0 min 0 W/m 10,5 km/h (2 Bft)
01.12.2014 02:28 3,0 C 2,2 C 94 % 1010,7 hPa 0,0 l/m 0 min 0 min 0 W/m 10,5 km/h (2 Bft)
01.12.2014 02:30 3,1 C 2,2 C 94 % 1010,8 hPa 0,0 l/m 0 min 0 min 0 W/m 10,5 km/h (2 Bft)
01.12.2014 02:32 3,1 C 2,2 C 94 % 1010,9 hPa 0,0 l/m 0 min 0 min 0 W/m 6,3 km/h (2 Bft)
01.12.2014 02:34 3,1 C 2,2 C 94 % 1010,9 hPa 0,0 l/m 0 min 0 min 0 W/m 8,4 km/h (2 Bft)
01.12.2014 02:36 3,1 C 2,2 C 94 % 1010,9 hPa 0,0 l/m 0 min 0 min 0 W/m 8,4 km/h (2 Bft)
01.12.2014 02:38 3,1 C 2,2 C 94 % 1010,9 hPa 0,0 l/m 0 min 0 min 0 W/m 18,8 km/h (3 Bft)
01.12.2014 02:40 3,1 C 2,2 C 94 % 1010,9 hPa 0,0 l/m 0 min 0 min 0 W/m 16,7 km/h (3 Bft)
01.12.2014 02:42 3,1 C 2,2 C 94 % 1010,9 hPa 0,0 l/m 0 min 0 min 0 W/m 16,7 km/h (3 Bft)
01.12.2014 02:44 3,1 C 2,2 C 94 % 1010,9 hPa 0,0 l/m 0 min 0 min 0 W/m 23,0 km/h (4 Bft)
01.12.2014 02:46 3,1 C 2,2 C 94 % 1010,8 hPa 0,0 l/m 0 min 0 min 0 W/m 18,8 km/h (3 Bft)
01.12.2014 02:48 3,0 C 2,2 C 94 % 1010,8 hPa 0,0 l/m 0 min 0 min 0 W/m 23,0 km/h (4 Bft)
01.12.2014 02:50 3,0 C 2,2 C 94 % 1010,9 hPa 0,0 l/m 0 min 0 min 0 W/m 20,9 km/h (4 Bft)
01.12.2014 02:52 3,0 C 2,2 C 94 % 1010,9 hPa 0,0 l/m 0 min 0 min 0 W/m 20,9 km/h (4 Bft)
01.12.2014 02:54 3,0 C 2,2 C 94 % 1010,9 hPa 0,0 l/m 0 min 0 min 0 W/m 18,8 km/h (3 Bft)
01.12.2014 02:56 3,0 C 2,2 C 94 % 1010,9 hPa 0,0 l/m 0 min 0 min 0 W/m 18,8 km/h (3 Bft)
01.12.2014 02:58 3,0 C 2,2 C 94 % 1010,9 hPa 0,0 l/m 0 min 0 min 0 W/m 18,8 km/h (3 Bft)
01.12.2014 03:00 3,0 C 2,2 C 94 % 1010,9 hPa 0,0 l/m 0 min 0 min 0 W/m 20,9 km/h (4 Bft)
01.12.2014 03:02 3,0 C 2,2 C 94 % 1010,9 hPa 0,0 l/m 0 min 0 min 0 W/m 23,0 km/h (4 Bft)
01.12.2014 03:04 3,0 C 2,2 C 94 % 1010,9 hPa 0,0 l/m 0 min 0 min 0 W/m 20,9 km/h (4 Bft)
01.12.2014 03:06 3,0 C 2,2 C 94 % 1010,8 hPa 0,0 l/m 0 min 0 min 0 W/m 23,0 km/h (4 Bft)
01.12.2014 03:08 3,0 C 2,2 C 94 % 1010,9 hPa 0,0 l/m 0 min 0 min 0 W/m 18,8 km/h (3 Bft)
01.12.2014 03:10 3,0 C 2,2 C 94 % 1010,9 hPa 0,0 l/m 0 min 0 min 0 W/m 16,7 km/h (3 Bft)
01.12.2014 03:12 3,0 C 2,2 C 94 % 1010,9 hPa 0,0 l/m 0 min 0 min 0 W/m 23,0 km/h (4 Bft)
01.12.2014 03:14 3,0 C 2,2 C 94 % 1010,9 hPa 0,0 l/m 0 min 0 min 0 W/m 16,7 km/h (3 Bft)
01.12.2014 03:16 3,0 C 2,2 C 94 % 1010,8 hPa 0,0 l/m 0 min 0 min 0 W/m 18,8 km/h (3 Bft)
01.12.2014 03:18 3,0 C 2,2 C 94 % 1010,8 hPa 0,0 l/m 0 min 0 min 0 W/m 18,8 km/h (3 Bft)
01.12.2014 03:20 3,0 C 2,2 C 94 % 1010,8 hPa 0,0 l/m 0 min 0 min 0 W/m 14,6 km/h (3 Bft)
01.12.2014 03:22 3,0 C 2,2 C 94 % 1010,8 hPa 0,0 l/m 0 min 0 min 0 W/m 14,6 km/h (3 Bft)
01.12.2014 03:24 3,0 C 2,2 C 94 % 1010,8 hPa 0,0 l/m 0 min 0 min 0 W/m 18,8 km/h (3 Bft)
01.12.2014 03:26 3,0 C 2,2 C 94 % 1010,8 hPa 0,0 l/m 0 min 0 min 0 W/m 20,9 km/h (4 Bft)
01.12.2014 03:28 3,0 C 2,2 C 94 % 1010,8 hPa 0,0 l/m 0 min 0 min 0 W/m 16,7 km/h (3 Bft)
01.12.2014 03:30 3,0 C 2,2 C 94 % 1010,8 hPa 0,0 l/m 0 min 0 min 0 W/m 27,2 km/h (4 Bft)
01.12.2014 03:32 3,0 C 2,2 C 94 % 1010,8 hPa 0,0 l/m 0 min 0 min 0 W/m 18,8 km/h (3 Bft)
01.12.2014 03:34 3,0 C 2,2 C 94 % 1010,8 hPa 0,0 l/m 0 min 0 min 0 W/m 16,7 km/h (3 Bft)
01.12.2014 03:36 3,0 C 2,2 C 94 % 1010,9 hPa 0,0 l/m 0 min 0 min 0 W/m 8,4 km/h (2 Bft)
01.12.2014 03:38 3,0 C 2,2 C 94 % 1010,9 hPa 0,0 l/m 0 min 0 min 0 W/m 10,5 km/h (2 Bft)
01.12.2014 03:40 3,0 C 2,2 C 94 % 1010,9 hPa 0,0 l/m 0 min 0 min 0 W/m 12,6 km/h (3 Bft)
01.12.2014 03:42 3,1 C 2,2 C 94 % 1010,9 hPa 0,0 l/m 0 min 0 min 0 W/m 16,7 km/h (3 Bft)
01.12.2014 03:44 3,0 C 2,2 C 94 % 1010,9 hPa 0,0 l/m 0 min 0 min 0 W/m 20,9 km/h (4 Bft)
01.12.2014 03:46 3,1 C 2,2 C 94 % 1010,8 hPa 0,0 l/m 0 min 0 min 0 W/m 18,8 km/h (3 Bft)
01.12.2014 03:48 3,0 C 2,2 C 94 % 1010,8 hPa 0,0 l/m 0 min 0 min 0 W/m 14,6 km/h (3 Bft)
01.12.2014 03:50 3,0 C 2,2 C 94 % 1010,8 hPa 0,0 l/m 0 min 0 min 0 W/m 16,7 km/h (3 Bft)
01.12.2014 03:52 3,0 C 2,2 C 94 % 1010,8 hPa 0,0 l/m 0 min 0 min 0 W/m 14,6 km/h (3 Bft)
01.12.2014 03:54 3,0 C 2,2 C 94 % 1010,8 hPa 0,0 l/m 0 min 0 min 0 W/m 18,8 km/h (3 Bft)
01.12.2014 03:56 3,0 C 2,2 C 94 % 1010,8 hPa 0,0 l/m 0 min 0 min 0 W/m 12,6 km/h (3 Bft)
01.12.2014 03:58 3,0 C 2,2 C 94 % 1010,8 hPa 0,0 l/m 0 min 0 min 0 W/m 14,6 km/h (3 Bft)
01.12.2014 04:00 3,0 C 2,2 C 94 % 1010,7 hPa 0,0 l/m 0 min 0 min 0 W/m 20,9 km/h (4 Bft)
01.12.2014 04:02 3,0 C 2,2 C 94 % 1010,7 hPa 0,0 l/m 0 min 0 min 0 W/m 18,8 km/h (3 Bft)
01.12.2014 04:04 3,0 C 2,2 C 94 % 1010,7 hPa 0,0 l/m 0 min 0 min 0 W/m 14,6 km/h (3 Bft)
01.12.2014 04:06 3,0 C 2,2 C 94 % 1010,6 hPa 0,0 l/m 0 min 0 min 0 W/m 16,7 km/h (3 Bft)
01.12.2014 04:08 3,0 C 2,2 C 94 % 1010,7 hPa 0,0 l/m 0 min 0 min 0 W/m 16,7 km/h (3 Bft)
01.12.2014 04:10 2,9 C 2,2 C 94 % 1010,7 hPa 0,0 l/m 0 min 0 min 0 W/m 14,6 km/h (3 Bft)
01.12.2014 04:12 2,9 C 2,2 C 94 % 1010,7 hPa 0,0 l/m 0 min 0 min 0 W/m 14,6 km/h (3 Bft)
01.12.2014 04:14 2,9 C 2,2 C 94 % 1010,7 hPa 0,0 l/m 0 min 0 min 0 W/m 16,7 km/h (3 Bft)
01.12.2014 04:16 2,9 C 2,2 C 94 % 1010,7 hPa 0,0 l/m 0 min 0 min 0 W/m 14,6 km/h (3 Bft)
01.12.2014 04:18 2,9 C 2,2 C 93 % 1010,7 hPa 0,0 l/m 0 min 0 min 0 W/m 12,6 km/h (3 Bft)
01.12.2014 04:20 2,9 C 2,2 C 94 % 1010,7 hPa 0,0 l/m 0 min 0 min 0 W/m 14,6 km/h (3 Bft)
01.12.2014 04:22 2,9 C 2,2 C 94 % 1010,7 hPa 0,0 l/m 0 min 0 min 0 W/m 14,6 km/h (3 Bft)
01.12.2014 04:24 2,9 C 2,2 C 94 % 1010,7 hPa 0,0 l/m 0 min 0 min 0 W/m 12,6 km/h (3 Bft)
01.12.2014 04:26 2,9 C 2,2 C 94 % 1010,7 hPa 0,0 l/m 0 min 0 min 0 W/m 12,6 km/h (3 Bft)
01.12.2014 04:28 2,9 C 2,2 C 94 % 1010,7 hPa 0,0 l/m 0 min 0 min 0 W/m 16,7 km/h (3 Bft)
01.12.2014 04:30 2,9 C 2,2 C 93 % 1010,7 hPa 0,0 l/m 0 min 0 min 0 W/m 14,6 km/h (3 Bft)
01.12.2014 04:32 2,9 C 2,2 C 93 % 1010,7 hPa 0,0 l/m 0 min 0 min 0 W/m 14,6 km/h (3 Bft)
01.12.2014 04:34 2,9 C 2,2 C 93 % 1010,6 hPa 0,0 l/m 0 min 0 min 0 W/m 25,1 km/h (4 Bft)
01.12.2014 04:36 2,9 C 2,2 C 93 % 1010,7 hPa 0,0 l/m 0 min 0 min 0 W/m 20,9 km/h (4 Bft)
01.12.2014 04:38 2,9 C 2,2 C 93 % 1010,7 hPa 0,0 l/m 0 min 0 min 0 W/m 18,8 km/h (3 Bft)
01.12.2014 04:40 2,8 C 2,2 C 93 % 1010,6 hPa 0,0 l/m 0 min 0 min 0 W/m 10,5 km/h (2 Bft)
01.12.2014 04:42 2,8 C 2,2 C 93 % 1010,6 hPa 0,0 l/m 0 min 0 min 0 W/m 12,6 km/h (3 Bft)
01.12.2014 04:44 2,8 C 2,2 C 93 % 1010,6 hPa 0,0 l/m 0 min 0 min 0 W/m 10,5 km/h (2 Bft)
01.12.2014 04:46 2,8 C 2,2 C 93 % 1010,7 hPa 0,0 l/m 0 min 0 min 0 W/m 10,5 km/h (2 Bft)
01.12.2014 04:48 2,8 C 2,2 C 93 % 1010,6 hPa 0,0 l/m 0 min 0 min 0 W/m 14,6 km/h (3 Bft)
01.12.2014 04:50 2,8 C 2,2 C 93 % 1010,7 hPa 0,0 l/m 0 min 0 min 0 W/m 14,6 km/h (3 Bft)
01.12.2014 04:52 2,9 C 2,2 C 93 % 1010,7 hPa 0,0 l/m 0 min 0 min 0 W/m 18,8 km/h (3 Bft)
01.12.2014 04:54 2,8 C 2,2 C 93 % 1010,7 hPa 0,0 l/m 0 min 0 min 0 W/m 14,6 km/h (3 Bft)
01.12.2014 04:56 2,9 C 2,2 C 93 % 1010,7 hPa 0,0 l/m 0 min 0 min 0 W/m 12,6 km/h (3 Bft)
01.12.2014 04:58 2,9 C 2,2 C 93 % 1010,7 hPa 0,0 l/m 0 min 0 min 0 W/m 12,6 km/h (3 Bft)
01.12.2014 05:00 2,9 C 2,2 C 93 % 1010,7 hPa 0,0 l/m 0 min 0 min 0 W/m 12,6 km/h (3 Bft)
01.12.2014 05:02 2,9 C 2,2 C 93 % 1010,7 hPa 0,0 l/m 0 min 0 min 0 W/m 10,5 km/h (2 Bft)
01.12.2014 05:04 2,9 C 2,2 C 93 % 1010,7 hPa 0,0 l/m 0 min 0 min 0 W/m 12,6 km/h (3 Bft)
01.12.2014 05:06 2,9 C 2,2 C 93 % 1010,7 hPa 0,0 l/m 0 min 0 min 0 W/m 6,3 km/h (2 Bft)
01.12.2014 05:08 2,9 C 2,2 C 93 % 1010,7 hPa 0,0 l/m 0 min 0 min 0 W/m 6,3 km/h (2 Bft)
01.12.2014 05:10 2,9 C 2,2 C 93 % 1010,7 hPa 0,0 l/m 0 min 0 min 0 W/m 8,4 km/h (2 Bft)
01.12.2014 05:12 2,9 C 2,2 C 93 % 1010,7 hPa 0,0 l/m 0 min 0 min 0 W/m 12,6 km/h (3 Bft)
01.12.2014 05:14 2,9 C 2,2 C 93 % 1010,6 hPa 0,0 l/m 0 min 0 min 0 W/m 8,4 km/h (2 Bft)
01.12.2014 05:16 2,9 C 2,2 C 93 % 1010,6 hPa 0,0 l/m 0 min 0 min 0 W/m 14,6 km/h (3 Bft)
01.12.2014 05:18 2,9 C 2,2 C 92 % 1010,7 hPa 0,0 l/m 0 min 0 min 0 W/m 12,6 km/h (3 Bft)
01.12.2014 05:20 2,9 C 2,2 C 92 % 1010,6 hPa 0,0 l/m 0 min 0 min 0 W/m 14,6 km/h (3 Bft)
01.12.2014 05:22 2,9 C 2,2 C 92 % 1010,6 hPa 0,0 l/m 0 min 0 min 0 W/m 14,6 km/h (3 Bft)
01.12.2014 05:24 2,9 C 2,2 C 92 % 1010,6 hPa 0,0 l/m 0 min 0 min 0 W/m 10,5 km/h (2 Bft)
01.12.2014 05:26 2,9 C 2,2 C 92 % 1010,6 hPa 0,0 l/m 0 min 0 min 0 W/m 12,6 km/h (3 Bft)
01.12.2014 05:28 2,9 C 2,2 C 92 % 1010,6 hPa 0,0 l/m 0 min 0 min 0 W/m 10,5 km/h (2 Bft)
01.12.2014 05:30 2,9 C 2,2 C 92 % 1010,6 hPa 0,0 l/m 0 min 0 min 0 W/m 10,5 km/h (2 Bft)
01.12.2014 05:32 2,9 C 2,2 C 92 % 1010,7 hPa 0,0 l/m 0 min 0 min 0 W/m 18,8 km/h (3 Bft)
01.12.2014 05:34 2,9 C 2,2 C 92 % 1010,7 hPa 0,0 l/m 0 min 0 min 0 W/m 12,6 km/h (3 Bft)
01.12.2014 05:36 2,9 C 2,2 C 92 % 1010,8 hPa 0,0 l/m 0 min 0 min 0 W/m 12,6 km/h (3 Bft)
01.12.2014 05:38 2,9 C 2,2 C 92 % 1010,8 hPa 0,0 l/m 0 min 0 min 0 W/m 12,6 km/h (3 Bft)
01.12.2014 05:40 2,9 C 2,2 C 92 % 1010,8 hPa 0,0 l/m 0 min 0 min 0 W/m 8,4 km/h (2 Bft)
01.12.2014 05:42 2,9 C 2,2 C 92 % 1010,8 hPa 0,0 l/m 0 min 0 min 0 W/m 10,5 km/h (2 Bft)
01.12.2014 05:44 2,9 C 2,2 C 92 % 1010,8 hPa 0,0 l/m 0 min 0 min 0 W/m 14,6 km/h (3 Bft)
01.12.2014 05:46 2,9 C 2,2 C 92 % 1010,8 hPa 0,0 l/m 0 min 0 min 0 W/m 10,5 km/h (2 Bft)
01.12.2014 05:48 2,9 C 2,2 C 92 % 1010,8 hPa 0,0 l/m 0 min 0 min 0 W/m 12,6 km/h (3 Bft)
01.12.2014 05:50 2,9 C 2,2 C 92 % 1010,8 hPa 0,0 l/m 0 min 0 min 0 W/m 10,5 km/h (2 Bft)
01.12.2014 05:52 2,9 C 2,2 C 92 % 1010,8 hPa 0,0 l/m 0 min 0 min 0 W/m 12,6 km/h (3 Bft)
01.12.2014 05:54 2,9 C 2,2 C 92 % 1010,8 hPa 0,0 l/m 0 min 0 min 0 W/m 12,6 km/h (3 Bft)
01.12.2014 05:56 2,9 C 2,2 C 92 % 1010,9 hPa 0,0 l/m 0 min 0 min 0 W/m 16,7 km/h (3 Bft)
01.12.2014 05:58 2,9 C 2,2 C 92 % 1010,9 hPa 0,0 l/m 0 min 0 min 0 W/m 10,5 km/h (2 Bft)
01.12.2014 06:00 2,9 C 2,2 C 92 % 1010,9 hPa 0,0 l/m 0 min 0 min 0 W/m 16,7 km/h (3 Bft)
01.12.2014 06:02 2,9 C 2,2 C 92 % 1010,9 hPa 0,0 l/m 0 min 0 min 0 W/m 14,6 km/h (3 Bft)
01.12.2014 06:05 2,9 C 2,2 C 92 % 1010,9 hPa 0,0 l/m 0 min 0 min 0 W/m 12,6 km/h (3 Bft)
01.12.2014 06:08 2,9 C 2,2 C 92 % 1010,9 hPa 0,0 l/m 0 min 0 min 0 W/m 14,6 km/h (3 Bft)
01.12.2014 06:10 3,0 C 2,2 C 92 % 1010,9 hPa 0,0 l/m 0 min 0 min 0 W/m 20,9 km/h (4 Bft)
01.12.2014 06:12 2,9 C 2,2 C 92 % 1010,9 hPa 0,0 l/m 0 min 0 min 0 W/m 23,0 km/h (4 Bft)
01.12.2014 06:14 2,9 C 2,2 C 92 % 1010,8 hPa 0,0 l/m 0 min 0 min 0 W/m 16,7 km/h (3 Bft)
01.12.2014 06:16 2,9 C 2,2 C 92 % 1010,8 hPa 0,0 l/m 0 min 0 min 0 W/m 10,5 km/h (2 Bft)
01.12.2014 06:18 2,9 C 2,2 C 92 % 1010,8 hPa 0,0 l/m 0 min 0 min 0 W/m 16,7 km/h (3 Bft)
01.12.2014 06:20 2,9 C 2,2 C 92 % 1010,8 hPa 0,0 l/m 0 min 0 min 0 W/m 20,9 km/h (4 Bft)
01.12.2014 06:22 2,9 C 2,2 C 92 % 1010,8 hPa 0,0 l/m 0 min 0 min 0 W/m 18,8 km/h (3 Bft)
01.12.2014 06:24 2,9 C 2,2 C 92 % 1010,8 hPa 0,0 l/m 0 min 0 min 0 W/m 25,1 km/h (4 Bft)
01.12.2014 06:26 2,9 C 2,2 C 92 % 1010,8 hPa 0,0 l/m 0 min 0 min 0 W/m 23,0 km/h (4 Bft)
01.12.2014 06:28 2,9 C 2,2 C 92 % 1010,7 hPa 0,0 l/m 0 min 0 min 0 W/m 20,9 km/h (4 Bft)
01.12.2014 06:30 2,9 C 2,2 C 92 % 1010,7 hPa 0,0 l/m 0 min 0 min 0 W/m 23,0 km/h (4 Bft)
01.12.2014 06:32 2,9 C 2,2 C 92 % 1010,8 hPa 0,0 l/m 0 min 0 min 0 W/m 27,2 km/h (4 Bft)
01.12.2014 06:34 2,9 C 2,2 C 92 % 1010,7 hPa 0,0 l/m 0 min 0 min 0 W/m 25,1 km/h (4 Bft)
01.12.2014 06:36 2,9 C 2,2 C 92 % 1010,7 hPa 0,0 l/m 0 min 0 min 0 W/m 31,4 km/h (5 Bft)
01.12.2014 06:38 2,9 C 2,2 C 92 % 1010,7 hPa 0,0 l/m 0 min 0 min 0 W/m 23,0 km/h (4 Bft)
01.12.2014 06:40 2,9 C 2,2 C 91 % 1010,7 hPa 0,0 l/m 0 min 0 min 0 W/m 18,8 km/h (3 Bft)
01.12.2014 06:42 2,9 C 2,2 C 91 % 1010,7 hPa 0,0 l/m 0 min 0 min 0 W/m 18,8 km/h (3 Bft)
01.12.2014 06:44 2,9 C 2,2 C 91 % 1010,7 hPa 0,0 l/m 0 min 0 min 0 W/m 16,7 km/h (3 Bft)
01.12.2014 06:46 2,9 C 2,2 C 91 % 1010,7 hPa 0,0 l/m 0 min 0 min 0 W/m 12,6 km/h (3 Bft)
01.12.2014 06:48 2,9 C 2,2 C 91 % 1010,6 hPa 0,0 l/m 0 min 0 min 0 W/m 18,8 km/h (3 Bft)
01.12.2014 06:50 2,9 C 2,2 C 91 % 1010,6 hPa 0,0 l/m 0 min 0 min 0 W/m 14,6 km/h (3 Bft)
01.12.2014 06:52 2,9 C 2,2 C 91 % 1010,6 hPa 0,0 l/m 0 min 0 min 0 W/m 14,6 km/h (3 Bft)
01.12.2014 06:54 3,0 C 2,2 C 91 % 1010,6 hPa 0,0 l/m 0 min 0 min 0 W/m 12,6 km/h (3 Bft)
01.12.2014 06:56 2,9 C 2,2 C 91 % 1010,7 hPa 0,0 l/m 0 min 0 min 0 W/m 12,6 km/h (3 Bft)
01.12.2014 06:58 3,0 C 2,2 C 91 % 1010,7 hPa 0,0 l/m 0 min 0 min 0 W/m 12,6 km/h (3 Bft)
01.12.2014 07:00 3,0 C 2,2 C 91 % 1010,8 hPa 0,0 l/m 0 min 0 min 0 W/m 8,4 km/h (2 Bft)
01.12.2014 07:02 3,0 C 2,2 C 91 % 1010,8 hPa 0,0 l/m 0 min 0 min 0 W/m 6,3 km/h (2 Bft)
01.12.2014 07:04 3,0 C 2,2 C 91 % 1010,8 hPa 0,0 l/m 0 min 0 min 0 W/m 10,5 km/h (2 Bft)
01.12.2014 07:06 3,0 C 2,2 C 91 % 1010,9 hPa 0,0 l/m 0 min 0 min 0 W/m 12,6 km/h (3 Bft)
01.12.2014 07:08 3,0 C 2,2 C 91 % 1010,9 hPa 0,0 l/m 0 min 0 min 0 W/m 6,3 km/h (2 Bft)
01.12.2014 07:10 3,0 C 2,2 C 91 % 1010,9 hPa 0,0 l/m 0 min 0 min 0 W/m 6,3 km/h (2 Bft)
01.12.2014 07:12 3,0 C 2,2 C 91 % 1010,9 hPa 0,0 l/m 0 min 0 min 0 W/m 6,3 km/h (2 Bft)
01.12.2014 07:14 3,0 C 2,2 C 91 % 1010,9 hPa 0,0 l/m 0 min 0 min 0 W/m 6,3 km/h (2 Bft)
01.12.2014 07:16 3,0 C 2,2 C 91 % 1010,9 hPa 0,0 l/m 0 min 0 min 0 W/m 10,5 km/h (2 Bft)
01.12.2014 07:18 3,0 C 2,2 C 91 % 1010,9 hPa 0,0 l/m 0 min 0 min 0 W/m 6,3 km/h (2 Bft)
01.12.2014 07:20 3,1 C 2,2 C 91 % 1010,8 hPa 0,0 l/m 0 min 0 min 0 W/m 10,5 km/h (2 Bft)
01.12.2014 07:22 3,1 C 2,2 C 91 % 1010,8 hPa 0,0 l/m 0 min 0 min 0 W/m 6,3 km/h (2 Bft)
01.12.2014 07:24 3,1 C 2,2 C 91 % 1010,8 hPa 0,0 l/m 0 min 0 min 0 W/m 10,5 km/h (2 Bft)
01.12.2014 07:26 3,1 C 2,2 C 91 % 1010,8 hPa 0,0 l/m 0 min 0 min 0 W/m 6,3 km/h (2 Bft)
01.12.2014 07:28 3,1 C 2,2 C 91 % 1010,8 hPa 0,0 l/m 0 min 0 min 0 W/m 4,2 km/h (1 Bft)
01.12.2014 07:30 3,1 C 2,2 C 91 % 1010,8 hPa 0,0 l/m 0 min 0 min 0 W/m 6,3 km/h (2 Bft)
01.12.2014 07:32 3,1 C 2,2 C 91 % 1010,9 hPa 0,0 l/m 0 min 0 min 0 W/m 6,3 km/h (2 Bft)
01.12.2014 07:34 3,1 C 2,2 C 91 % 1010,9 hPa 0,0 l/m 0 min 0 min 0 W/m 6,3 km/h (2 Bft)
01.12.2014 07:36 3,1 C 2,2 C 91 % 1010,9 hPa 0,0 l/m 0 min 0 min 0 W/m 8,4 km/h (2 Bft)
01.12.2014 07:38 3,1 C 2,2 C 91 % 1010,9 hPa 0,0 l/m 0 min 0 min 0 W/m 6,3 km/h (2 Bft)
01.12.2014 07:40 3,1 C 2,2 C 91 % 1010,9 hPa 0,0 l/m 0 min 0 min 0 W/m 6,3 km/h (2 Bft)
01.12.2014 07:42 3,1 C 2,2 C 91 % 1010,9 hPa 0,0 l/m 0 min 0 min 0 W/m 4,2 km/h (1 Bft)
01.12.2014 07:44 3,1 C 2,2 C 91 % 1010,9 hPa 0,0 l/m 0 min 0 min 0 W/m 6,3 km/h (2 Bft)
01.12.2014 07:46 3,1 C 2,2 C 91 % 1010,9 hPa 0,0 l/m 0 min 0 min 0 W/m 6,3 km/h (2 Bft)
01.12.2014 07:48 3,1 C 2,2 C 91 % 1010,9 hPa 0,0 l/m 0 min 0 min 0 W/m 8,4 km/h (2 Bft)
01.12.2014 07:50 3,1 C 2,2 C 91 % 1010,9 hPa 0,0 l/m 0 min 0 min 0 W/m 10,5 km/h (2 Bft)
01.12.2014 07:52 3,1 C 2,2 C 91 % 1011,0 hPa 0,0 l/m 0 min 0 min 0 W/m 10,5 km/h (2 Bft)
01.12.2014 07:54 3,1 C 2,2 C 91 % 1011,0 hPa 0,0 l/m 0 min 0 min 0 W/m 8,4 km/h (2 Bft)
01.12.2014 07:56 3,1 C 2,2 C 91 % 1011,0 hPa 0,0 l/m 0 min 0 min 0 W/m 10,5 km/h (2 Bft)
01.12.2014 07:58 3,1 C 2,2 C 91 % 1011,0 hPa 0,0 l/m 0 min 0 min 0 W/m 4,2 km/h (1 Bft)
01.12.2014 08:00 3,1 C 2,2 C 91 % 1010,9 hPa 0,0 l/m 0 min 0 min 0 W/m 6,3 km/h (2 Bft)
01.12.2014 08:02 3,1 C 2,2 C 91 % 1010,9 hPa 0,0 l/m 0 min 0 min 0 W/m 10,5 km/h (2 Bft)
01.12.2014 08:04 3,1 C 2,2 C 91 % 1010,9 hPa 0,0 l/m 0 min 0 min 0 W/m 8,4 km/h (2 Bft)
01.12.2014 08:06 3,1 C 2,2 C 91 % 1010,9 hPa 0,0 l/m 0 min 0 min 0 W/m 6,3 km/h (2 Bft)
01.12.2014 08:08 3,1 C 2,2 C 91 % 1010,9 hPa 0,0 l/m 0 min 0 min 0 W/m 10,5 km/h (2 Bft)
01.12.2014 08:10 3,1 C 2,2 C 91 % 1010,9 hPa 0,0 l/m 0 min 0 min 0 W/m 18,8 km/h (3 Bft)
01.12.2014 08:12 3,2 C 2,2 C 91 % 1010,9 hPa 0,0 l/m 0 min 0 min 0 W/m 18,8 km/h (3 Bft)
01.12.2014 08:14 3,2 C 2,2 C 91 % 1010,9 hPa 0,0 l/m 0 min 0 min 0 W/m 14,6 km/h (3 Bft)
01.12.2014 08:16 3,2 C 2,2 C 91 % 1011,0 hPa 0,0 l/m 0 min 0 min 0 W/m 18,8 km/h (3 Bft)
01.12.2014 08:18 3,2 C 2,2 C 91 % 1011,0 hPa 0,0 l/m 0 min 0 min 0 W/m 16,7 km/h (3 Bft)
01.12.2014 08:20 3,2 C 2,2 C 91 % 1011,0 hPa 0,0 l/m 0 min 0 min 0 W/m 14,6 km/h (3 Bft)
01.12.2014 08:22 3,2 C 2,2 C 91 % 1011,0 hPa 0,0 l/m 0 min 0 min 0 W/m 12,6 km/h (3 Bft)
01.12.2014 08:24 3,2 C 2,2 C 91 % 1011,0 hPa 0,0 l/m 0 min 0 min 0 W/m 16,7 km/h (3 Bft)
01.12.2014 08:26 3,2 C 2,2 C 91 % 1011,0 hPa 0,0 l/m 0 min 0 min 0 W/m 18,8 km/h (3 Bft)
01.12.2014 08:28 3,2 C 2,2 C 91 % 1011,0 hPa 0,0 l/m 0 min 0 min 0 W/m 14,6 km/h (3 Bft)
01.12.2014 08:30 3,2 C 2,2 C 91 % 1011,1 hPa 0,0 l/m 0 min 0 min 0 W/m 14,6 km/h (3 Bft)
01.12.2014 08:32 3,2 C 2,2 C 91 % 1011,2 hPa 0,0 l/m 0 min 0 min 0 W/m 16,7 km/h (3 Bft)
01.12.2014 08:34 3,2 C 2,2 C 91 % 1011,2 hPa 0,0 l/m 0 min 0 min 0 W/m 12,6 km/h (3 Bft)
01.12.2014 08:36 3,2 C 2,2 C 91 % 1011,2 hPa 0,0 l/m 0 min 0 min 2 W/m 14,6 km/h (3 Bft)
01.12.2014 08:38 3,2 C 2,2 C 91 % 1011,2 hPa 0,0 l/m 0 min 0 min 5 W/m 14,6 km/h (3 Bft)
01.12.2014 08:40 3,2 C 2,2 C 91 % 1011,2 hPa 0,0 l/m 0 min 0 min 5 W/m 18,8 km/h (3 Bft)
01.12.2014 08:42 3,2 C 2,2 C 91 % 1011,1 hPa 0,0 l/m 0 min 0 min 5 W/m 25,1 km/h (4 Bft)
01.12.2014 08:44 3,2 C 2,2 C 91 % 1011,1 hPa 0,0 l/m 0 min 0 min 5 W/m 14,6 km/h (3 Bft)
01.12.2014 08:46 3,2 C 2,2 C 91 % 1011,2 hPa 0,0 l/m 0 min 0 min 5 W/m 18,8 km/h (3 Bft)
01.12.2014 08:48 3,2 C 2,2 C 91 % 1011,2 hPa 0,0 l/m 0 min 0 min 7 W/m 20,9 km/h (4 Bft)
01.12.2014 08:50 3,2 C 2,2 C 91 % 1011,3 hPa 0,0 l/m 0 min 0 min 7 W/m 23,0 km/h (4 Bft)
01.12.2014 08:52 3,2 C 2,2 C 91 % 1011,3 hPa 0,0 l/m 0 min 0 min 7 W/m 16,7 km/h (3 Bft)
01.12.2014 08:54 3,2 C 2,2 C 91 % 1011,3 hPa 0,0 l/m 0 min 0 min 9 W/m 14,6 km/h (3 Bft)
01.12.2014 08:56 3,2 C 2,2 C 91 % 1011,4 hPa 0,0 l/m 0 min 0 min 9 W/m 23,0 km/h (4 Bft)
01.12.2014 08:58 3,2 C 2,2 C 91 % 1011,4 hPa 0,0 l/m 0 min 0 min 9 W/m 20,9 km/h (4 Bft)
01.12.2014 09:00 3,2 C 2,2 C 90 % 1011,4 hPa 0,0 l/m 0 min 0 min 10 W/m 20,9 km/h (4 Bft)
01.12.2014 09:02 3,2 C 2,2 C 90 % 1011,5 hPa 0,0 l/m 0 min 0 min 10 W/m 23,0 km/h (4 Bft)
01.12.2014 09:04 3,2 C 2,2 C 90 % 1011,5 hPa 0,0 l/m 0 min 0 min 11 W/m 23,0 km/h (4 Bft)
01.12.2014 09:06 3,2 C 2,2 C 90 % 1011,5 hPa 0,0 l/m 0 min 0 min 11 W/m 20,9 km/h (4 Bft)
01.12.2014 09:08 3,2 C 2,2 C 90 % 1011,5 hPa 0,0 l/m 0 min 0 min 11 W/m 16,7 km/h (3 Bft)
01.12.2014 09:10 3,2 C 2,8 C 90 % 1011,6 hPa 0,0 l/m 0 min 0 min 11 W/m 20,9 km/h (4 Bft)
01.12.2014 09:12 3,2 C 2,8 C 90 % 1011,6 hPa 0,0 l/m 0 min 0 min 11 W/m 18,8 km/h (3 Bft)
01.12.2014 09:14 3,2 C 2,8 C 90 % 1011,6 hPa 0,0 l/m 0 min 0 min 11 W/m 18,8 km/h (3 Bft)
01.12.2014 09:16 3,2 C 2,8 C 90 % 1011,5 hPa 0,0 l/m 0 min 0 min 12 W/m 16,7 km/h (3 Bft)
01.12.2014 09:18 3,2 C 2,8 C 90 % 1011,6 hPa 0,0 l/m 0 min 0 min 13 W/m 23,0 km/h (4 Bft)
01.12.2014 09:20 3,2 C 2,8 C 90 % 1011,5 hPa 0,0 l/m 0 min 0 min 12 W/m 16,7 km/h (3 Bft)
01.12.2014 09:22 3,2 C 2,8 C 90 % 1011,6 hPa 0,0 l/m 0 min 0 min 12 W/m 20,9 km/h (4 Bft)
01.12.2014 09:24 3,3 C 2,8 C 89 % 1011,5 hPa 0,0 l/m 0 min 0 min 11 W/m 18,8 km/h (3 Bft)
01.12.2014 09:26 3,3 C 2,8 C 90 % 1011,6 hPa 0,0 l/m 0 min 0 min 11 W/m 18,8 km/h (3 Bft)
01.12.2014 09:28 3,3 C 2,8 C 90 % 1011,6 hPa 0,0 l/m 0 min 0 min 11 W/m 16,7 km/h (3 Bft)
01.12.2014 09:30 3,3 C 2,8 C 90 % 1011,6 hPa 0,0 l/m 0 min 0 min 12 W/m 10,5 km/h (2 Bft)
01.12.2014 09:32 3,3 C 2,8 C 90 % 1011,6 hPa 0,0 l/m 0 min 0 min 14 W/m 18,8 km/h (3 Bft)
01.12.2014 09:34 3,3 C 2,8 C 90 % 1011,6 hPa 0,0 l/m 0 min 0 min 16 W/m 29,3 km/h (5 Bft)
01.12.2014 09:36 3,3 C 2,8 C 90 % 1011,6 hPa 0,0 l/m 0 min 0 min 18 W/m 23,0 km/h (4 Bft)
01.12.2014 09:38 3,3 C 2,8 C 89 % 1011,6 hPa 0,0 l/m 0 min 0 min 18 W/m 12,6 km/h (3 Bft)
01.12.2014 09:40 3,3 C 2,8 C 89 % 1011,6 hPa 0,0 l/m 0 min 0 min 18 W/m 20,9 km/h (4 Bft)
01.12.2014 09:42 3,3 C 2,8 C 89 % 1011,7 hPa 0,0 l/m 0 min 0 min 18 W/m 14,6 km/h (3 Bft)
01.12.2014 09:44 3,3 C 2,8 C 89 % 1011,6 hPa 0,0 l/m 0 min 0 min 18 W/m 20,9 km/h (4 Bft)
01.12.2014 09:46 3,3 C 2,8 C 89 % 1011,6 hPa 0,0 l/m 0 min 0 min 18 W/m 14,6 km/h (3 Bft)
01.12.2014 09:48 3,3 C 2,8 C 89 % 1011,6 hPa 0,0 l/m 0 min 0 min 19 W/m 18,8 km/h (3 Bft)
01.12.2014 09:50 3,3 C 2,8 C 89 % 1011,6 hPa 0,0 l/m 0 min 0 min 20 W/m 25,1 km/h (4 Bft)
01.12.2014 09:52 3,3 C 2,8 C 89 % 1011,7 hPa 0,0 l/m 0 min 0 min 21 W/m 14,6 km/h (3 Bft)
01.12.2014 09:54 3,3 C 2,8 C 89 % 1011,6 hPa 0,0 l/m 0 min 0 min 23 W/m 14,6 km/h (3 Bft)
01.12.2014 09:56 3,3 C 2,8 C 89 % 1011,6 hPa 0,0 l/m 0 min 0 min 23 W/m 16,7 km/h (3 Bft)
01.12.2014 09:58 3,3 C 2,8 C 89 % 1011,6 hPa 0,0 l/m 0 min 0 min 23 W/m 14,6 km/h (3 Bft)
01.12.2014 10:00 3,3 C 2,8 C 89 % 1011,6 hPa 0,0 l/m 0 min 0 min 25 W/m 16,7 km/h (3 Bft)
01.12.2014 10:02 3,3 C 2,8 C 89 % 1011,6 hPa 0,0 l/m 0 min 0 min 26 W/m 14,6 km/h (3 Bft)
01.12.2014 10:04 3,3 C 2,8 C 89 % 1011,6 hPa 0,0 l/m 0 min 0 min 26 W/m 18,8 km/h (3 Bft)
01.12.2014 10:06 3,3 C 2,8 C 89 % 1011,6 hPa 0,0 l/m 0 min 0 min 26 W/m 18,8 km/h (3 Bft)
01.12.2014 10:08 3,3 C 2,8 C 89 % 1011,6 hPa 0,0 l/m 0 min 0 min 26 W/m 14,6 km/h (3 Bft)
01.12.2014 10:10 3,3 C 2,8 C 89 % 1011,5 hPa 0,0 l/m 0 min 0 min 26 W/m 10,5 km/h (2 Bft)
01.12.2014 10:12 3,3 C 2,8 C 89 % 1011,5 hPa 0,0 l/m 0 min 0 min 27 W/m 12,6 km/h (3 Bft)
01.12.2014 10:14 3,3 C 2,8 C 89 % 1011,5 hPa 0,0 l/m 0 min 0 min 28 W/m 20,9 km/h (4 Bft)
01.12.2014 10:16 3,3 C 2,8 C 89 % 1011,5 hPa 0,0 l/m 0 min 0 min 28 W/m 14,6 km/h (3 Bft)
01.12.2014 10:18 3,4 C 2,8 C 89 % 1011,5 hPa 0,0 l/m 0 min 0 min 28 W/m 18,8 km/h (3 Bft)
01.12.2014 10:20 3,4 C 2,8 C 89 % 1011,5 hPa 0,0 l/m 0 min 0 min 29 W/m 16,7 km/h (3 Bft)
01.12.2014 10:22 3,4 C 2,8 C 89 % 1011,6 hPa 0,0 l/m 0 min 0 min 28 W/m 14,6 km/h (3 Bft)
01.12.2014 10:24 3,4 C 2,8 C 89 % 1011,6 hPa 0,0 l/m 0 min 0 min 28 W/m 16,7 km/h (3 Bft)
01.12.2014 10:26 3,4 C 2,8 C 89 % 1011,7 hPa 0,0 l/m 0 min 0 min 26 W/m 16,7 km/h (3 Bft)
01.12.2014 10:28 3,4 C 2,8 C 89 % 1011,7 hPa 0,0 l/m 0 min 0 min 27 W/m 18,8 km/h (3 Bft)
01.12.2014 10:30 3,4 C 2,8 C 89 % 1011,7 hPa 0,0 l/m 0 min 0 min 28 W/m 14,6 km/h (3 Bft)
01.12.2014 10:32 3,4 C 2,8 C 89 % 1011,7 hPa 0,0 l/m 0 min 0 min 30 W/m 18,8 km/h (3 Bft)
01.12.2014 10:34 3,4 C 2,8 C 89 % 1011,8 hPa 0,0 l/m 0 min 0 min 30 W/m 23,0 km/h (4 Bft)
01.12.2014 10:36 3,4 C 2,8 C 89 % 1011,8 hPa 0,0 l/m 0 min 0 min 30 W/m 14,6 km/h (3 Bft)
01.12.2014 10:38 3,4 C 2,8 C 89 % 1011,7 hPa 0,0 l/m 0 min 0 min 30 W/m 20,9 km/h (4 Bft)
01.12.2014 10:40 3,4 C 2,8 C 89 % 1011,7 hPa 0,0 l/m 0 min 0 min 30 W/m 18,8 km/h (3 Bft)
01.12.2014 10:42 3,4 C 2,8 C 89 % 1011,7 hPa 0,0 l/m 0 min 0 min 32 W/m 10,5 km/h (2 Bft)
01.12.2014 10:44 3,4 C 2,8 C 89 % 1011,7 hPa 0,0 l/m 0 min 0 min 34 W/m 18,8 km/h (3 Bft)
01.12.2014 10:46 3,4 C 2,8 C 89 % 1011,6 hPa 0,0 l/m 0 min 0 min 35 W/m 14,6 km/h (3 Bft)
01.12.2014 10:48 3,4 C 2,8 C 89 % 1011,6 hPa 0,0 l/m 0 min 0 min 36 W/m 14,6 km/h (3 Bft)
01.12.2014 10:50 3,4 C 2,8 C 89 % 1011,6 hPa 0,0 l/m 0 min 0 min 35 W/m 18,8 km/h (3 Bft)
01.12.2014 10:52 3,4 C 2,8 C 89 % 1011,6 hPa 0,0 l/m 0 min 0 min 35 W/m 10,5 km/h (2 Bft)
01.12.2014 10:54 3,4 C 2,8 C 89 % 1011,6 hPa 0,0 l/m 0 min 0 min 36 W/m 14,6 km/h (3 Bft)
01.12.2014 10:56 3,4 C 2,8 C 89 % 1011,6 hPa 0,0 l/m 0 min 0 min 36 W/m 12,6 km/h (3 Bft)
01.12.2014 10:58 3,4 C 2,8 C 89 % 1011,5 hPa 0,0 l/m 0 min 0 min 37 W/m 16,7 km/h (3 Bft)
01.12.2014 11:00 3,4 C 2,8 C 89 % 1011,5 hPa 0,0 l/m 0 min 0 min 37 W/m 10,5 km/h (2 Bft)
01.12.2014 11:02 3,4 C 2,8 C 89 % 1011,6 hPa 0,0 l/m 0 min 0 min 37 W/m 10,5 km/h (2 Bft)
01.12.2014 11:04 3,4 C 2,8 C 89 % 1011,6 hPa 0,0 l/m 0 min 0 min 37 W/m 14,6 km/h (3 Bft)
01.12.2014 11:06 3,4 C 2,8 C 89 % 1011,5 hPa 0,0 l/m 0 min 0 min 38 W/m 18,8 km/h (3 Bft)
01.12.2014 11:08 3,4 C 2,8 C 89 % 1011,4 hPa 0,0 l/m 0 min 0 min 37 W/m 18,8 km/h (3 Bft)
01.12.2014 11:10 3,4 C 2,8 C 89 % 1011,4 hPa 0,0 l/m 0 min 0 min 38 W/m 23,0 km/h (4 Bft)
01.12.2014 11:12 3,4 C 2,8 C 89 % 1011,2 hPa 0,0 l/m 0 min 0 min 39 W/m 16,7 km/h (3 Bft)
01.12.2014 11:14 3,4 C 2,8 C 89 % 1011,2 hPa 0,0 l/m 0 min 0 min 41 W/m 18,8 km/h (3 Bft)
01.12.2014 11:16 3,4 C 2,8 C 89 % 1011,2 hPa 0,0 l/m 0 min 0 min 42 W/m 14,6 km/h (3 Bft)
01.12.2014 11:18 3,4 C 2,8 C 89 % 1011,2 hPa 0,0 l/m 0 min 0 min 40 W/m 20,9 km/h (4 Bft)
01.12.2014 11:20 3,4 C 2,8 C 89 % 1011,3 hPa 0,0 l/m 0 min 0 min 39 W/m 16,7 km/h (3 Bft)
01.12.2014 11:22 3,5 C 2,8 C 88 % 1011,3 hPa 0,0 l/m 0 min 0 min 40 W/m 16,7 km/h (3 Bft)
01.12.2014 11:24 3,4 C 2,8 C 88 % 1011,2 hPa 0,0 l/m 0 min 0 min 42 W/m 23,0 km/h (4 Bft)
01.12.2014 11:26 3,5 C 2,8 C 88 % 1011,2 hPa 0,0 l/m 0 min 0 min 41 W/m 18,8 km/h (3 Bft)
01.12.2014 11:28 3,5 C 2,8 C 88 % 1011,2 hPa 0,0 l/m 0 min 0 min 41 W/m 18,8 km/h (3 Bft)
01.12.2014 11:30 3,5 C 2,8 C 88 % 1011,2 hPa 0,0 l/m 0 min 0 min 44 W/m 14,6 km/h (3 Bft)
01.12.2014 11:32 3,5 C 2,8 C 88 % 1011,3 hPa 0,0 l/m 0 min 0 min 45 W/m 18,8 km/h (3 Bft)
01.12.2014 11:34 3,5 C 2,8 C 88 % 1011,2 hPa 0,0 l/m 0 min 0 min 46 W/m 14,6 km/h (3 Bft)
01.12.2014 11:36 3,5 C 2,8 C 88 % 1011,2 hPa 0,0 l/m 0 min 0 min 46 W/m 18,8 km/h (3 Bft)
01.12.2014 11:38 3,5 C 2,8 C 88 % 1011,1 hPa 0,0 l/m 0 min 0 min 47 W/m 18,8 km/h (3 Bft)
01.12.2014 11:40 3,5 C 2,8 C 88 % 1011,1 hPa 0,0 l/m 0 min 0 min 49 W/m 16,7 km/h (3 Bft)
01.12.2014 11:42 3,6 C 2,8 C 88 % 1011,0 hPa 0,0 l/m 0 min 0 min 53 W/m 14,6 km/h (3 Bft)
01.12.2014 11:44 3,6 C 3,3 C 88 % 1011,0 hPa 0,0 l/m 0 min 0 min 53 W/m 20,9 km/h (4 Bft)
01.12.2014 11:46 3,6 C 3,3 C 88 % 1011,0 hPa 0,0 l/m 0 min 0 min 52 W/m 18,8 km/h (3 Bft)
01.12.2014 11:48 3,6 C 3,3 C 88 % 1011,0 hPa 0,0 l/m 0 min 0 min 51 W/m 16,7 km/h (3 Bft)
01.12.2014 11:50 3,6 C 3,3 C 88 % 1011,0 hPa 0,0 l/m 0 min 0 min 50 W/m 16,7 km/h (3 Bft)
01.12.2014 11:52 3,6 C 3,3 C 88 % 1011,0 hPa 0,0 l/m 0 min 0 min 50 W/m 14,6 km/h (3 Bft)
01.12.2014 11:54 3,6 C 3,3 C 88 % 1011,0 hPa 0,0 l/m 0 min 0 min 49 W/m 16,7 km/h (3 Bft)
01.12.2014 11:56 3,7 C 3,3 C 88 % 1011,0 hPa 0,0 l/m 0 min 0 min 48 W/m 8,4 km/h (2 Bft)
01.12.2014 11:58 3,6 C 3,3 C 88 % 1011,0 hPa 0,0 l/m 0 min 0 min 47 W/m 16,7 km/h (3 Bft)
01.12.2014 12:00 3,7 C 3,3 C 88 % 1011,0 hPa 0,0 l/m 0 min 0 min 47 W/m 20,9 km/h (4 Bft)
01.12.2014 12:02 3,7 C 3,3 C 88 % 1011,0 hPa 0,0 l/m 0 min 0 min 45 W/m 14,6 km/h (3 Bft)
01.12.2014 12:05 3,7 C 3,3 C 88 % 1011,0 hPa 0,0 l/m 0 min 0 min 42 W/m 18,8 km/h (3 Bft)
01.12.2014 12:08 3,7 C 3,3 C 88 % 1010,9 hPa 0,0 l/m 0 min 0 min 44 W/m 18,8 km/h (3 Bft)
01.12.2014 12:10 3,7 C 3,3 C 88 % 1011,0 hPa 0,0 l/m 0 min 0 min 46 W/m 16,7 km/h (3 Bft)
01.12.2014 12:12 3,7 C 3,3 C 88 % 1011,0 hPa 0,0 l/m 0 min 0 min 44 W/m 16,7 km/h (3 Bft)
01.12.2014 12:14 3,7 C 3,3 C 88 % 1010,9 hPa 0,0 l/m 0 min 0 min 44 W/m 18,8 km/h (3 Bft)
01.12.2014 12:16 3,7 C 3,3 C 88 % 1011,0 hPa 0,0 l/m 0 min 0 min 44 W/m 12,6 km/h (3 Bft)
01.12.2014 12:18 3,7 C 3,3 C 88 % 1011,0 hPa 0,0 l/m 0 min 0 min 44 W/m 18,8 km/h (3 Bft)
01.12.2014 12:20 3,7 C 3,3 C 88 % 1010,9 hPa 0,0 l/m 0 min 0 min 44 W/m 18,8 km/h (3 Bft)
01.12.2014 12:22 3,7 C 3,3 C 88 % 1011,0 hPa 0,0 l/m 0 min 0 min 43 W/m 18,8 km/h (3 Bft)
01.12.2014 12:24 3,7 C 3,3 C 88 % 1010,9 hPa 0,0 l/m 0 min 0 min 45 W/m 14,6 km/h (3 Bft)
01.12.2014 12:26 3,8 C 3,3 C 88 % 1011,0 hPa 0,0 l/m 0 min 0 min 42 W/m 10,5 km/h (2 Bft)
01.12.2014 12:28 3,8 C 3,3 C 88 % 1011,0 hPa 0,0 l/m 0 min 0 min 42 W/m 18,8 km/h (3 Bft)
01.12.2014 12:30 3,8 C 3,3 C 88 % 1011,0 hPa 0,0 l/m 0 min 0 min 42 W/m 18,8 km/h (3 Bft)
01.12.2014 12:32 3,8 C 3,3 C 88 % 1011,0 hPa 0,0 l/m 0 min 0 min 40 W/m 23,0 km/h (4 Bft)
01.12.2014 12:34 3,8 C 3,3 C 88 % 1011,0 hPa 0,0 l/m 0 min 0 min 40 W/m 16,7 km/h (3 Bft)
01.12.2014 12:36 3,8 C 3,3 C 88 % 1010,9 hPa 0,0 l/m 0 min 0 min 40 W/m 14,6 km/h (3 Bft)
01.12.2014 12:38 3,8 C 3,3 C 88 % 1011,0 hPa 0,0 l/m 0 min 0 min 40 W/m 16,7 km/h (3 Bft)
01.12.2014 12:40 3,8 C 3,3 C 88 % 1011,0 hPa 0,0 l/m 0 min 0 min 39 W/m 14,6 km/h (3 Bft)
01.12.2014 12:42 3,8 C 3,3 C 88 % 1011,0 hPa 0,0 l/m 0 min 0 min 39 W/m 14,6 km/h (3 Bft)
01.12.2014 12:44 3,8 C 3,3 C 88 % 1010,9 hPa 0,0 l/m 0 min 0 min 39 W/m 10,5 km/h (2 Bft)
01.12.2014 12:46 3,8 C 3,3 C 88 % 1010,9 hPa 0,0 l/m 0 min 0 min 38 W/m 12,6 km/h (3 Bft)
01.12.2014 12:48 3,8 C 3,3 C 88 % 1010,9 hPa 0,0 l/m 0 min 0 min 37 W/m 14,6 km/h (3 Bft)
01.12.2014 12:50 3,8 C 3,3 C 88 % 1010,9 hPa 0,0 l/m 0 min 0 min 37 W/m 10,5 km/h (2 Bft)
01.12.2014 12:52 3,8 C 3,3 C 88 % 1010,9 hPa 0,0 l/m 0 min 0 min 37 W/m 14,6 km/h (3 Bft)
01.12.2014 12:54 3,8 C 3,3 C 88 % 1011,0 hPa 0,0 l/m 0 min 0 min 37 W/m 14,6 km/h (3 Bft)
01.12.2014 12:56 3,9 C 3,3 C 88 % 1010,9 hPa 0,0 l/m 0 min 0 min 39 W/m 12,6 km/h (3 Bft)
01.12.2014 12:58 3,8 C 3,3 C 88 % 1010,9 hPa 0,0 l/m 0 min 0 min 38 W/m 12,6 km/h (3 Bft)
01.12.2014 13:00 3,8 C 3,3 C 88 % 1010,9 hPa 0,0 l/m 0 min 0 min 39 W/m 12,6 km/h (3 Bft)
01.12.2014 13:02 3,9 C 3,3 C 88 % 1010,9 hPa 0,0 l/m 0 min 0 min 37 W/m 14,6 km/h (3 Bft)
01.12.2014 13:04 3,9 C 3,3 C 88 % 1010,9 hPa 0,0 l/m 0 min 0 min 37 W/m 14,6 km/h (3 Bft)
01.12.2014 13:06 3,8 C 3,3 C 88 % 1010,9 hPa 0,0 l/m 0 min 0 min 37 W/m 14,6 km/h (3 Bft)
01.12.2014 13:08 3,8 C 3,3 C 88 % 1010,9 hPa 0,0 l/m 0 min 0 min 35 W/m 14,6 km/h (3 Bft)
01.12.2014 13:10 3,8 C 3,3 C 87 % 1010,9 hPa 0,0 l/m 0 min 0 min 37 W/m 12,6 km/h (3 Bft)
01.12.2014 13:12 3,8 C 3,3 C 88 % 1010,9 hPa 0,0 l/m 0 min 0 min 37 W/m 12,6 km/h (3 Bft)
01.12.2014 13:14 3,8 C 3,3 C 88 % 1010,9 hPa 0,0 l/m 0 min 0 min 35 W/m 10,5 km/h (2 Bft)
01.12.2014 13:16 3,9 C 3,3 C 88 % 1010,9 hPa 0,0 l/m 0 min 0 min 36 W/m 10,5 km/h (2 Bft)
01.12.2014 13:18 3,9 C 3,3 C 88 % 1010,8 hPa 0,0 l/m 0 min 0 min 37 W/m 14,6 km/h (3 Bft)
01.12.2014 13:20 3,9 C 3,3 C 88 % 1010,9 hPa 0,0 l/m 0 min 0 min 35 W/m 16,7 km/h (3 Bft)
01.12.2014 13:22 3,9 C 3,3 C 88 % 1010,9 hPa 0,0 l/m 0 min 0 min 35 W/m 14,6 km/h (3 Bft)
01.12.2014 13:24 3,9 C 3,3 C 88 % 1010,9 hPa 0,0 l/m 0 min 0 min 35 W/m 16,7 km/h (3 Bft)
01.12.2014 13:26 3,9 C 3,3 C 88 % 1010,8 hPa 0,0 l/m 0 min 0 min 35 W/m 12,6 km/h (3 Bft)
01.12.2014 13:28 3,9 C 3,3 C 88 % 1010,8 hPa 0,0 l/m 0 min 0 min 35 W/m 16,7 km/h (3 Bft)
01.12.2014 13:30 3,9 C 3,3 C 87 % 1010,8 hPa 0,0 l/m 0 min 0 min 35 W/m 16,7 km/h (3 Bft)
01.12.2014 13:32 3,9 C 3,3 C 87 % 1010,7 hPa 0,0 l/m 0 min 0 min 38 W/m 12,6 km/h (3 Bft)
01.12.2014 13:34 3,9 C 3,3 C 87 % 1010,7 hPa 0,0 l/m 0 min 0 min 39 W/m 10,5 km/h (2 Bft)
01.12.2014 13:36 3,9 C 3,3 C 87 % 1010,7 hPa 0,0 l/m 0 min 0 min 39 W/m 12,6 km/h (3 Bft)
01.12.2014 13:38 3,9 C 3,3 C 87 % 1010,7 hPa 0,0 l/m 0 min 0 min 38 W/m 12,6 km/h (3 Bft)
01.12.2014 13:40 3,9 C 3,3 C 87 % 1010,6 hPa 0,0 l/m 0 min 0 min 37 W/m 10,5 km/h (2 Bft)
01.12.2014 13:42 3,9 C 3,3 C 87 % 1010,6 hPa 0,0 l/m 0 min 0 min 39 W/m 14,6 km/h (3 Bft)
01.12.2014 13:44 3,9 C 3,3 C 87 % 1010,5 hPa 0,0 l/m 0 min 0 min 38 W/m 12,6 km/h (3 Bft)
01.12.2014 13:46 3,9 C 3,3 C 87 % 1010,6 hPa 0,0 l/m 0 min 0 min 35 W/m 10,5 km/h (2 Bft)
01.12.2014 13:48 3,9 C 3,3 C 87 % 1010,5 hPa 0,0 l/m 0 min 0 min 35 W/m 8,4 km/h (2 Bft)
01.12.2014 13:50 3,9 C 3,3 C 87 % 1010,6 hPa 0,0 l/m 0 min 0 min 33 W/m 6,3 km/h (2 Bft)
01.12.2014 13:52 4,0 C 3,3 C 87 % 1010,5 hPa 0,0 l/m 0 min 0 min 30 W/m 6,3 km/h (2 Bft)
01.12.2014 13:54 4,0 C 3,3 C 87 % 1010,5 hPa 0,0 l/m 0 min 0 min 29 W/m 10,5 km/h (2 Bft)
01.12.2014 13:56 4,0 C 3,3 C 87 % 1010,5 hPa 0,0 l/m 0 min 0 min 30 W/m 6,3 km/h (2 Bft)
01.12.2014 13:58 4,0 C 3,3 C 87 % 1010,6 hPa 0,0 l/m 0 min 0 min 29 W/m 6,3 km/h (2 Bft)
01.12.2014 14:00 4,0 C 3,3 C 87 % 1010,6 hPa 0,0 l/m 0 min 0 min 28 W/m 14,6 km/h (3 Bft)
01.12.2014 14:02 4,0 C 3,3 C 87 % 1010,5 hPa 0,0 l/m 0 min 0 min 29 W/m 18,8 km/h (3 Bft)
01.12.2014 14:04 4,0 C 3,3 C 87 % 1010,6 hPa 0,0 l/m 0 min 0 min 31 W/m 14,6 km/h (3 Bft)
01.12.2014 14:06 4,0 C 3,3 C 87 % 1010,6 hPa 0,0 l/m 0 min 0 min 30 W/m 12,6 km/h (3 Bft)
01.12.2014 14:08 4,0 C 3,3 C 87 % 1010,5 hPa 0,0 l/m 0 min 0 min 29 W/m 10,5 km/h (2 Bft)
01.12.2014 14:10 4,0 C 3,3 C 87 % 1010,6 hPa 0,0 l/m 0 min 0 min 28 W/m 10,5 km/h (2 Bft)
01.12.2014 14:12 4,0 C 3,3 C 87 % 1010,6 hPa 0,0 l/m 0 min 0 min 28 W/m 12,6 km/h (3 Bft)
01.12.2014 14:14 3,9 C 2,8 C 87 % 1010,6 hPa 0,0 l/m 0 min 0 min 28 W/m 12,6 km/h (3 Bft)
01.12.2014 14:16 3,9 C 2,8 C 87 % 1010,6 hPa 0,0 l/m 0 min 0 min 28 W/m 14,6 km/h (3 Bft)
01.12.2014 14:18 3,9 C 2,8 C 87 % 1010,6 hPa 0,0 l/m 0 min 0 min 28 W/m 12,6 km/h (3 Bft)
01.12.2014 14:20 3,9 C 2,8 C 87 % 1010,6 hPa 0,0 l/m 0 min 0 min 28 W/m 18,8 km/h (3 Bft)
01.12.2014 14:22 3,9 C 2,8 C 87 % 1010,6 hPa 0,0 l/m 0 min 0 min 28 W/m 14,6 km/h (3 Bft)
01.12.2014 14:24 3,9 C 2,8 C 87 % 1010,7 hPa 0,0 l/m 0 min 0 min 28 W/m 14,6 km/h (3 Bft)
01.12.2014 14:26 3,9 C 2,8 C 88 % 1010,6 hPa 0,0 l/m 0 min 0 min 28 W/m 12,6 km/h (3 Bft)
01.12.2014 14:28 3,8 C 2,8 C 88 % 1010,6 hPa 0,0 l/m 0 min 0 min 28 W/m 12,6 km/h (3 Bft)
01.12.2014 14:30 3,8 C 2,8 C 88 % 1010,7 hPa 0,0 l/m 0 min 0 min 27 W/m 14,6 km/h (3 Bft)
01.12.2014 14:32 3,8 C 2,8 C 88 % 1010,7 hPa 0,0 l/m 0 min 0 min 26 W/m 10,5 km/h (2 Bft)
01.12.2014 14:34 3,8 C 2,8 C 88 % 1010,7 hPa 0,0 l/m 0 min 0 min 28 W/m 10,5 km/h (2 Bft)
01.12.2014 14:36 3,8 C 2,8 C 88 % 1010,7 hPa 0,0 l/m 0 min 0 min 28 W/m 10,5 km/h (2 Bft)
01.12.2014 14:38 3,8 C 2,8 C 88 % 1010,6 hPa 0,0 l/m 0 min 0 min 28 W/m 8,4 km/h (2 Bft)
01.12.2014 14:40 3,8 C 2,8 C 88 % 1010,6 hPa 0,0 l/m 0 min 0 min 26 W/m 12,6 km/h (3 Bft)
01.12.2014 14:42 3,8 C 2,8 C 88 % 1010,7 hPa 0,0 l/m 0 min 0 min 25 W/m 14,6 km/h (3 Bft)
01.12.2014 14:44 3,8 C 2,8 C 88 % 1010,6 hPa 0,0 l/m 0 min 0 min 25 W/m 18,8 km/h (3 Bft)
01.12.2014 14:46 3,8 C 2,8 C 88 % 1010,6 hPa 0,0 l/m 0 min 0 min 25 W/m 20,9 km/h (4 Bft)
01.12.2014 14:48 3,8 C 2,8 C 88 % 1010,7 hPa 0,0 l/m 0 min 0 min 25 W/m 16,7 km/h (3 Bft)
01.12.2014 14:50 3,7 C 2,8 C 88 % 1010,6 hPa 0,0 l/m 0 min 0 min 23 W/m 14,6 km/h (3 Bft)
01.12.2014 14:52 3,7 C 2,8 C 88 % 1010,6 hPa 0,0 l/m 0 min 0 min 23 W/m 8,4 km/h (2 Bft)
01.12.2014 14:54 3,7 C 2,8 C 88 % 1010,6 hPa 0,0 l/m 0 min 0 min 23 W/m 16,7 km/h (3 Bft)
01.12.2014 14:56 3,7 C 2,8 C 88 % 1010,6 hPa 0,0 l/m 0 min 0 min 22 W/m 14,6 km/h (3 Bft)
01.12.2014 14:58 3,7 C 2,8 C 88 % 1010,6 hPa 0,0 l/m 0 min 0 min 22 W/m 12,6 km/h (3 Bft)
01.12.2014 15:00 3,7 C 2,8 C 88 % 1010,6 hPa 0,0 l/m 0 min 0 min 21 W/m 18,8 km/h (3 Bft)
01.12.2014 15:02 3,7 C 2,8 C 88 % 1010,6 hPa 0,0 l/m 0 min 0 min 21 W/m 20,9 km/h (4 Bft)
01.12.2014 15:04 3,7 C 2,8 C 88 % 1010,6 hPa 0,0 l/m 0 min 0 min 20 W/m 16,7 km/h (3 Bft)
01.12.2014 15:06 3,7 C 2,8 C 88 % 1010,7 hPa 0,0 l/m 0 min 0 min 18 W/m 20,9 km/h (4 Bft)
01.12.2014 15:08 3,7 C 2,8 C 88 % 1010,7 hPa 0,0 l/m 0 min 0 min 18 W/m 23,0 km/h (4 Bft)
01.12.2014 15:10 3,7 C 2,8 C 88 % 1010,7 hPa 0,0 l/m 0 min 0 min 18 W/m 20,9 km/h (4 Bft)
01.12.2014 15:12 3,7 C 2,8 C 88 % 1010,8 hPa 0,0 l/m 0 min 0 min 17 W/m 18,8 km/h (3 Bft)
01.12.2014 15:14 3,7 C 2,8 C 88 % 1010,7 hPa 0,0 l/m 0 min 0 min 16 W/m 14,6 km/h (3 Bft)
01.12.2014 15:16 3,7 C 2,8 C 88 % 1010,7 hPa 0,0 l/m 0 min 0 min 15 W/m 18,8 km/h (3 Bft)
01.12.2014 15:18 3,7 C 2,8 C 88 % 1010,8 hPa 0,0 l/m 0 min 0 min 14 W/m 18,8 km/h (3 Bft)
01.12.2014 15:20 3,7 C 2,8 C 88 % 1010,8 hPa 0,0 l/m 0 min 0 min 14 W/m 16,7 km/h (3 Bft)
01.12.2014 15:22 3,7 C 2,8 C 88 % 1010,8 hPa 0,0 l/m 0 min 0 min 14 W/m 20,9 km/h (4 Bft)
01.12.2014 15:24 3,7 C 2,8 C 88 % 1010,8 hPa 0,0 l/m 0 min 0 min 12 W/m 20,9 km/h (4 Bft)
01.12.2014 15:26 3,7 C 2,8 C 88 % 1010,8 hPa 0,0 l/m 0 min 0 min 12 W/m 12,6 km/h (3 Bft)
01.12.2014 15:28 3,7 C 2,8 C 88 % 1010,9 hPa 0,0 l/m 0 min 0 min 12 W/m 10,5 km/h (2 Bft)
01.12.2014 15:30 3,6 C 2,8 C 88 % 1010,9 hPa 0,0 l/m 0 min 0 min 12 W/m 16,7 km/h (3 Bft)
01.12.2014 15:32 3,6 C 2,8 C 88 % 1010,9 hPa 0,0 l/m 0 min 0 min 11 W/m 14,6 km/h (3 Bft)
01.12.2014 15:34 3,6 C 2,8 C 88 % 1010,9 hPa 0,0 l/m 0 min 0 min 11 W/m 16,7 km/h (3 Bft)
01.12.2014 15:36 3,6 C 2,8 C 88 % 1010,9 hPa 0,0 l/m 0 min 0 min 11 W/m 6,3 km/h (2 Bft)
01.12.2014 15:38 3,6 C 2,8 C 88 % 1011,0 hPa 0,0 l/m 0 min 0 min 10 W/m 12,6 km/h (3 Bft)
01.12.2014 15:40 3,6 C 2,8 C 88 % 1011,0 hPa 0,0 l/m 0 min 0 min 10 W/m 12,6 km/h (3 Bft)
01.12.2014 15:42 3,6 C 2,8 C 88 % 1011,0 hPa 0,0 l/m 0 min 0 min 9 W/m 20,9 km/h (4 Bft)
01.12.2014 15:44 3,6 C 2,8 C 88 % 1011,0 hPa 0,0 l/m 0 min 0 min 9 W/m 18,8 km/h (3 Bft)
01.12.2014 15:46 3,6 C 2,8 C 88 % 1011,0 hPa 0,0 l/m 0 min 0 min 9 W/m 18,8 km/h (3 Bft)
01.12.2014 15:48 3,6 C 2,8 C 88 % 1011,0 hPa 0,0 l/m 0 min 0 min 7 W/m 20,9 km/h (4 Bft)
01.12.2014 15:50 3,6 C 2,8 C 88 % 1011,1 hPa 0,0 l/m 0 min 0 min 7 W/m 25,1 km/h (4 Bft)
01.12.2014 15:52 3,6 C 2,8 C 88 % 1011,0 hPa 0,0 l/m 0 min 0 min 7 W/m 29,3 km/h (5 Bft)
01.12.2014 15:54 3,6 C 2,8 C 88 % 1011,1 hPa 0,0 l/m 0 min 0 min 7 W/m 16,7 km/h (3 Bft)
01.12.2014 15:56 3,5 C 2,8 C 88 % 1011,1 hPa 0,0 l/m 0 min 0 min 7 W/m 14,6 km/h (3 Bft)
01.12.2014 15:58 3,5 C 2,8 C 88 % 1011,1 hPa 0,0 l/m 0 min 0 min 5 W/m 20,9 km/h (4 Bft)
01.12.2014 16:00 3,5 C 2,8 C 88 % 1011,2 hPa 0,0 l/m 0 min 0 min 5 W/m 20,9 km/h (4 Bft)
01.12.2014 16:02 3,5 C 2,8 C 88 % 1011,3 hPa 0,0 l/m 0 min 0 min 5 W/m 16,7 km/h (3 Bft)
01.12.2014 16:04 3,5 C 2,8 C 88 % 1011,2 hPa 0,0 l/m 0 min 0 min 5 W/m 20,9 km/h (4 Bft)
01.12.2014 16:06 3,4 C 2,8 C 88 % 1011,3 hPa 0,0 l/m 0 min 0 min 5 W/m 27,2 km/h (4 Bft)
01.12.2014 16:08 3,4 C 2,8 C 88 % 1011,2 hPa 0,0 l/m 0 min 0 min 5 W/m 18,8 km/h (3 Bft)
01.12.2014 16:10 3,4 C 2,8 C 88 % 1011,2 hPa 0,0 l/m 0 min 0 min 2 W/m 14,6 km/h (3 Bft)
01.12.2014 16:12 3,4 C 2,8 C 88 % 1011,2 hPa 0,0 l/m 0 min 0 min 0 W/m 12,6 km/h (3 Bft)
01.12.2014 16:14 3,4 C 2,8 C 88 % 1011,3 hPa 0,0 l/m 0 min 0 min 0 W/m 16,7 km/h (3 Bft)
01.12.2014 16:16 3,4 C 2,8 C 88 % 1011,3 hPa 0,0 l/m 0 min 0 min 0 W/m 14,6 km/h (3 Bft)
01.12.2014 16:18 3,4 C 2,8 C 88 % 1011,3 hPa 0,0 l/m 0 min 0 min 0 W/m 16,7 km/h (3 Bft)
01.12.2014 16:20 3,4 C 2,8 C 88 % 1011,3 hPa 0,0 l/m 0 min 0 min 0 W/m 20,9 km/h (4 Bft)
01.12.2014 16:22 3,4 C 2,8 C 88 % 1011,3 hPa 0,0 l/m 0 min 0 min 0 W/m 14,6 km/h (3 Bft)
01.12.2014 16:24 3,4 C 2,8 C 88 % 1011,3 hPa 0,0 l/m 0 min 0 min 0 W/m 25,1 km/h (4 Bft)
01.12.2014 16:26 3,4 C 2,8 C 88 % 1011,3 hPa 0,0 l/m 0 min 0 min 0 W/m 27,2 km/h (4 Bft)
01.12.2014 16:28 3,4 C 2,8 C 88 % 1011,3 hPa 0,0 l/m 0 min 0 min 0 W/m 14,6 km/h (3 Bft)
01.12.2014 16:30 3,3 C 2,8 C 88 % 1011,3 hPa 0,0 l/m 0 min 0 min 0 W/m 27,2 km/h (4 Bft)
01.12.2014 16:32 3,3 C 2,2 C 88 % 1011,3 hPa 0,0 l/m 0 min 0 min 0 W/m 20,9 km/h (4 Bft)
01.12.2014 16:34 3,3 C 2,2 C 88 % 1011,2 hPa 0,0 l/m 0 min 0 min 0 W/m 20,9 km/h (4 Bft)
01.12.2014 16:36 3,3 C 2,2 C 88 % 1011,2 hPa 0,0 l/m 0 min 0 min 0 W/m 18,8 km/h (3 Bft)
01.12.2014 16:38 3,3 C 2,2 C 88 % 1011,2 hPa 0,0 l/m 0 min 0 min 0 W/m 25,1 km/h (4 Bft)
01.12.2014 16:40 3,3 C 2,2 C 88 % 1011,2 hPa 0,0 l/m 0 min 0 min 0 W/m 20,9 km/h (4 Bft)
01.12.2014 16:42 3,3 C 2,2 C 88 % 1011,1 hPa 0,0 l/m 0 min 0 min 0 W/m 16,7 km/h (3 Bft)
01.12.2014 16:44 3,3 C 2,2 C 88 % 1011,1 hPa 0,0 l/m 0 min 0 min 0 W/m 16,7 km/h (3 Bft)
01.12.2014 16:46 3,3 C 2,2 C 88 % 1011,1 hPa 0,0 l/m 0 min 0 min 0 W/m 20,9 km/h (4 Bft)
01.12.2014 16:48 3,3 C 2,2 C 88 % 1011,1 hPa 0,0 l/m 0 min 0 min 0 W/m 20,9 km/h (4 Bft)
01.12.2014 16:50 3,3 C 2,2 C 88 % 1011,2 hPa 0,0 l/m 0 min 0 min 0 W/m 18,8 km/h (3 Bft)
01.12.2014 16:52 3,3 C 2,2 C 88 % 1011,1 hPa 0,0 l/m 0 min 0 min 0 W/m 23,0 km/h (4 Bft)
01.12.2014 16:54 3,3 C 2,2 C 88 % 1011,2 hPa 0,0 l/m 0 min 0 min 0 W/m 23,0 km/h (4 Bft)
01.12.2014 16:56 3,3 C 2,2 C 88 % 1011,2 hPa 0,0 l/m 0 min 0 min 0 W/m 23,0 km/h (4 Bft)
01.12.2014 16:58 3,2 C 2,2 C 88 % 1011,3 hPa 0,0 l/m 0 min 0 min 0 W/m 18,8 km/h (3 Bft)
01.12.2014 17:00 3,2 C 2,2 C 88 % 1011,2 hPa 0,0 l/m 0 min 0 min 0 W/m 14,6 km/h (3 Bft)
01.12.2014 17:02 3,2 C 2,2 C 88 % 1011,2 hPa 0,0 l/m 0 min 0 min 0 W/m 16,7 km/h (3 Bft)
01.12.2014 17:04 3,2 C 2,2 C 88 % 1011,2 hPa 0,0 l/m 0 min 0 min 0 W/m 14,6 km/h (3 Bft)
01.12.2014 17:06 3,2 C 2,2 C 88 % 1011,1 hPa 0,0 l/m 0 min 0 min 0 W/m 18,8 km/h (3 Bft)
01.12.2014 17:08 3,2 C 2,2 C 88 % 1011,1 hPa 0,0 l/m 0 min 0 min 0 W/m 29,3 km/h (5 Bft)
01.12.2014 17:10 3,2 C 2,2 C 88 % 1011,1 hPa 0,0 l/m 0 min 0 min 0 W/m 16,7 km/h (3 Bft)
01.12.2014 17:12 3,2 C 2,2 C 88 % 1011,1 hPa 0,0 l/m 0 min 0 min 0 W/m 23,0 km/h (4 Bft)
01.12.2014 17:14 3,2 C 2,2 C 88 % 1011,1 hPa 0,0 l/m 0 min 0 min 0 W/m 20,9 km/h (4 Bft)
01.12.2014 17:16 3,2 C 2,2 C 88 % 1011,1 hPa 0,0 l/m 0 min 0 min 0 W/m 20,9 km/h (4 Bft)
01.12.2014 17:18 3,2 C 2,2 C 88 % 1011,1 hPa 0,0 l/m 0 min 0 min 0 W/m 14,6 km/h (3 Bft)
01.12.2014 17:20 3,2 C 2,2 C 88 % 1011,1 hPa 0,0 l/m 0 min 0 min 0 W/m 12,6 km/h (3 Bft)
01.12.2014 17:22 3,2 C 2,2 C 88 % 1011,1 hPa 0,0 l/m 0 min 0 min 0 W/m 16,7 km/h (3 Bft)
01.12.2014 17:24 3,2 C 2,2 C 88 % 1011,1 hPa 0,0 l/m 0 min 0 min 0 W/m 14,6 km/h (3 Bft)
01.12.2014 17:26 3,2 C 2,2 C 88 % 1011,1 hPa 0,0 l/m 0 min 0 min 0 W/m 18,8 km/h (3 Bft)
01.12.2014 17:28 3,2 C 2,2 C 88 % 1011,1 hPa 0,0 l/m 0 min 0 min 0 W/m 10,5 km/h (2 Bft)
01.12.2014 17:30 3,2 C 2,2 C 88 % 1011,1 hPa 0,0 l/m 0 min 0 min 0 W/m 10,5 km/h (2 Bft)
01.12.2014 17:32 3,2 C 2,2 C 88 % 1011,1 hPa 0,0 l/m 0 min 0 min 0 W/m 18,8 km/h (3 Bft)
01.12.2014 17:34 3,2 C 2,2 C 88 % 1011,2 hPa 0,0 l/m 0 min 0 min 0 W/m 16,7 km/h (3 Bft)
01.12.2014 17:36 3,2 C 2,2 C 88 % 1011,2 hPa 0,0 l/m 0 min 0 min 0 W/m 20,9 km/h (4 Bft)
01.12.2014 17:38 3,2 C 2,2 C 88 % 1011,2 hPa 0,0 l/m 0 min 0 min 0 W/m 14,6 km/h (3 Bft)
01.12.2014 17:40 3,2 C 2,2 C 88 % 1011,2 hPa 0,0 l/m 0 min 0 min 0 W/m 18,8 km/h (3 Bft)
01.12.2014 17:42 3,2 C 2,2 C 88 % 1011,2 hPa 0,0 l/m 0 min 0 min 0 W/m 14,6 km/h (3 Bft)
01.12.2014 17:44 3,2 C 2,2 C 88 % 1011,2 hPa 0,0 l/m 0 min 0 min 0 W/m 12,6 km/h (3 Bft)
01.12.2014 17:46 3,2 C 2,2 C 88 % 1011,2 hPa 0,0 l/m 0 min 0 min 0 W/m 18,8 km/h (3 Bft)
01.12.2014 17:48 3,2 C 2,2 C 88 % 1011,3 hPa 0,0 l/m 0 min 0 min 0 W/m 20,9 km/h (4 Bft)
01.12.2014 17:50 3,1 C 2,2 C 88 % 1011,3 hPa 0,0 l/m 0 min 0 min 0 W/m 20,9 km/h (4 Bft)
01.12.2014 17:52 3,1 C 2,2 C 88 % 1011,3 hPa 0,0 l/m 0 min 0 min 0 W/m 20,9 km/h (4 Bft)
01.12.2014 17:54 3,1 C 2,2 C 88 % 1011,3 hPa 0,0 l/m 0 min 0 min 0 W/m 18,8 km/h (3 Bft)
01.12.2014 17:56 3,1 C 2,2 C 88 % 1011,4 hPa 0,0 l/m 0 min 0 min 0 W/m 18,8 km/h (3 Bft)
01.12.2014 17:58 3,1 C 2,2 C 88 % 1011,3 hPa 0,0 l/m 0 min 0 min 0 W/m 18,8 km/h (3 Bft)
01.12.2014 18:00 3,1 C 2,2 C 88 % 1011,3 hPa 0,0 l/m 0 min 0 min 0 W/m 14,6 km/h (3 Bft)
01.12.2014 18:02 3,1 C 2,2 C 88 % 1011,3 hPa 0,0 l/m 0 min 0 min 0 W/m 14,6 km/h (3 Bft)
01.12.2014 18:05 3,1 C 2,2 C 88 % 1011,3 hPa 0,0 l/m 0 min 0 min 0 W/m 18,8 km/h (3 Bft)
01.12.2014 18:08 3,1 C 2,2 C 88 % 1011,4 hPa 0,0 l/m 0 min 0 min 0 W/m 18,8 km/h (3 Bft)
01.12.2014 18:10 3,1 C 2,2 C 88 % 1011,4 hPa 0,0 l/m 0 min 0 min 0 W/m 14,6 km/h (3 Bft)
01.12.2014 18:12 3,1 C 2,2 C 87 % 1011,3 hPa 0,0 l/m 0 min 0 min 0 W/m 14,6 km/h (3 Bft)
01.12.2014 18:14 3,1 C 2,2 C 87 % 1011,3 hPa 0,0 l/m 0 min 0 min 0 W/m 14,6 km/h (3 Bft)
01.12.2014 18:16 3,1 C 2,2 C 87 % 1011,2 hPa 0,0 l/m 0 min 0 min 0 W/m 14,6 km/h (3 Bft)
01.12.2014 18:18 3,1 C 2,2 C 87 % 1011,3 hPa 0,0 l/m 0 min 0 min 0 W/m 18,8 km/h (3 Bft)
01.12.2014 18:20 3,1 C 2,2 C 87 % 1011,3 hPa 0,0 l/m 0 min 0 min 0 W/m 14,6 km/h (3 Bft)
01.12.2014 18:22 3,1 C 2,2 C 87 % 1011,3 hPa 0,0 l/m 0 min 0 min 0 W/m 14,6 km/h (3 Bft)
01.12.2014 18:24 3,1 C 2,2 C 87 % 1011,3 hPa 0,0 l/m 0 min 0 min 0 W/m 14,6 km/h (3 Bft)
01.12.2014 18:26 3,1 C 2,2 C 87 % 1011,3 hPa 0,0 l/m 0 min 0 min 0 W/m 18,8 km/h (3 Bft)
01.12.2014 18:28 3,1 C 2,2 C 87 % 1011,3 hPa 0,0 l/m 0 min 0 min 0 W/m 14,6 km/h (3 Bft)
01.12.2014 18:30 3,1 C 2,2 C 87 % 1011,3 hPa 0,0 l/m 0 min 0 min 0 W/m 14,6 km/h (3 Bft)
01.12.2014 18:32 3,0 C 2,2 C 87 % 1011,3 hPa 0,0 l/m 0 min 0 min 0 W/m 12,6 km/h (3 Bft)
01.12.2014 18:34 3,0 C 2,2 C 87 % 1011,3 hPa 0,0 l/m 0 min 0 min 0 W/m 14,6 km/h (3 Bft)
01.12.2014 18:36 3,0 C 2,2 C 87 % 1011,3 hPa 0,0 l/m 0 min 0 min 0 W/m 16,7 km/h (3 Bft)
01.12.2014 18:38 3,0 C 2,2 C 87 % 1011,4 hPa 0,0 l/m 0 min 0 min 0 W/m 16,7 km/h (3 Bft)
01.12.2014 18:40 3,0 C 2,2 C 87 % 1011,4 hPa 0,0 l/m 0 min 0 min 0 W/m 18,8 km/h (3 Bft)
01.12.2014 18:42 3,0 C 2,2 C 87 % 1011,4 hPa 0,0 l/m 0 min 0 min 0 W/m 10,5 km/h (2 Bft)
01.12.2014 18:44 3,0 C 2,2 C 87 % 1011,4 hPa 0,0 l/m 0 min 0 min 0 W/m 18,8 km/h (3 Bft)
01.12.2014 18:46 3,0 C 2,2 C 87 % 1011,4 hPa 0,0 l/m 0 min 0 min 0 W/m 16,7 km/h (3 Bft)
01.12.2014 18:48 2,9 C 2,2 C 87 % 1011,4 hPa 0,0 l/m 0 min 0 min 0 W/m 23,0 km/h (4 Bft)
01.12.2014 18:50 2,9 C 2,2 C 87 % 1011,4 hPa 0,0 l/m 0 min 0 min 0 W/m 23,0 km/h (4 Bft)
01.12.2014 18:52 2,9 C 2,2 C 87 % 1011,4 hPa 0,0 l/m 0 min 0 min 0 W/m 10,5 km/h (2 Bft)
01.12.2014 18:54 2,9 C 2,2 C 87 % 1011,4 hPa 0,0 l/m 0 min 0 min 0 W/m 16,7 km/h (3 Bft)
01.12.2014 18:56 2,9 C 2,2 C 87 % 1011,4 hPa 0,0 l/m 0 min 0 min 0 W/m 18,8 km/h (3 Bft)
01.12.2014 18:58 2,9 C 2,2 C 87 % 1011,4 hPa 0,0 l/m 0 min 0 min 0 W/m 20,9 km/h (4 Bft)
01.12.2014 19:00 2,9 C 2,2 C 87 % 1011,4 hPa 0,0 l/m 0 min 0 min 0 W/m 16,7 km/h (3 Bft)
01.12.2014 19:02 2,9 C 2,2 C 87 % 1011,4 hPa 0,0 l/m 0 min 0 min 0 W/m 18,8 km/h (3 Bft)
01.12.2014 19:04 2,9 C 2,2 C 87 % 1011,5 hPa 0,0 l/m 0 min 0 min 0 W/m 20,9 km/h (4 Bft)
01.12.2014 19:06 2,9 C 2,2 C 87 % 1011,5 hPa 0,0 l/m 0 min 0 min 0 W/m 14,6 km/h (3 Bft)
01.12.2014 19:08 2,9 C 2,2 C 87 % 1011,5 hPa 0,0 l/m 0 min 0 min 0 W/m 18,8 km/h (3 Bft)
01.12.2014 19:10 2,9 C 2,2 C 87 % 1011,6 hPa 0,0 l/m 0 min 0 min 0 W/m 18,8 km/h (3 Bft)
01.12.2014 19:12 2,9 C 2,2 C 87 % 1011,5 hPa 0,0 l/m 0 min 0 min 0 W/m 18,8 km/h (3 Bft)
01.12.2014 19:14 2,9 C 2,2 C 87 % 1011,5 hPa 0,0 l/m 0 min 0 min 0 W/m 16,7 km/h (3 Bft)
01.12.2014 19:16 2,9 C 2,2 C 87 % 1011,5 hPa 0,0 l/m 0 min 0 min 0 W/m 16,7 km/h (3 Bft)
01.12.2014 19:18 2,9 C 2,2 C 87 % 1011,5 hPa 0,0 l/m 0 min 0 min 0 W/m 23,0 km/h (4 Bft)
01.12.2014 19:20 2,8 C 2,2 C 87 % 1011,5 hPa 0,0 l/m 0 min 0 min 0 W/m 20,9 km/h (4 Bft)
01.12.2014 19:22 2,8 C 2,2 C 87 % 1011,4 hPa 0,0 l/m 0 min 0 min 0 W/m 16,7 km/h (3 Bft)
01.12.2014 19:24 2,8 C 2,2 C 87 % 1011,5 hPa 0,0 l/m 0 min 0 min 0 W/m 18,8 km/h (3 Bft)
01.12.2014 19:26 2,8 C 2,2 C 87 % 1011,5 hPa 0,0 l/m 0 min 0 min 0 W/m 23,0 km/h (4 Bft)
01.12.2014 19:28 2,8 C 2,2 C 87 % 1011,5 hPa 0,0 l/m 0 min 0 min 0 W/m 18,8 km/h (3 Bft)
01.12.2014 19:30 2,8 C 1,7 C 87 % 1011,5 hPa 0,0 l/m 0 min 0 min 0 W/m 20,9 km/h (4 Bft)
01.12.2014 19:32 2,8 C 1,7 C 87 % 1011,5 hPa 0,0 l/m 0 min 0 min 0 W/m 18,8 km/h (3 Bft)
01.12.2014 19:34 2,8 C 2,2 C 87 % 1011,5 hPa 0,0 l/m 0 min 0 min 0 W/m 20,9 km/h (4 Bft)
01.12.2014 19:36 2,8 C 2,2 C 87 % 1011,5 hPa 0,0 l/m 0 min 0 min 0 W/m 18,8 km/h (3 Bft)
01.12.2014 19:38 2,8 C 2,2 C 87 % 1011,6 hPa 0,0 l/m 0 min 0 min 0 W/m 14,6 km/h (3 Bft)
01.12.2014 19:40 2,8 C 2,2 C 87 % 1011,7 hPa 0,0 l/m 0 min 0 min 0 W/m 20,9 km/h (4 Bft)
01.12.2014 19:42 2,8 C 2,2 C 87 % 1011,7 hPa 0,0 l/m 0 min 0 min 0 W/m 25,1 km/h (4 Bft)
01.12.2014 19:44 2,8 C 2,2 C 87 % 1011,6 hPa 0,0 l/m 0 min 0 min 0 W/m 14,6 km/h (3 Bft)
01.12.2014 19:46 2,7 C 1,7 C 87 % 1011,6 hPa 0,0 l/m 0 min 0 min 0 W/m 29,3 km/h (5 Bft)
01.12.2014 19:48 2,7 C 1,7 C 87 % 1011,6 hPa 0,0 l/m 0 min 0 min 0 W/m 27,2 km/h (4 Bft)
01.12.2014 19:50 2,7 C 1,7 C 87 % 1011,6 hPa 0,0 l/m 0 min 0 min 0 W/m 23,0 km/h (4 Bft)
01.12.2014 19:52 2,7 C 1,7 C 87 % 1011,5 hPa 0,0 l/m 0 min 0 min 0 W/m 23,0 km/h (4 Bft)
01.12.2014 19:54 2,7 C 1,7 C 87 % 1011,6 hPa 0,0 l/m 0 min 0 min 0 W/m 18,8 km/h (3 Bft)
01.12.2014 19:56 2,7 C 1,7 C 87 % 1011,6 hPa 0,0 l/m 0 min 0 min 0 W/m 20,9 km/h (4 Bft)
01.12.2014 19:58 2,7 C 1,7 C 86 % 1011,6 hPa 0,0 l/m 0 min 0 min 0 W/m 23,0 km/h (4 Bft)
01.12.2014 20:00 2,7 C 1,7 C 86 % 1011,6 hPa 0,0 l/m 0 min 0 min 0 W/m 18,8 km/h (3 Bft)
01.12.2014 20:02 2,7 C 1,7 C 86 % 1011,7 hPa 0,0 l/m 0 min 0 min 0 W/m 18,8 km/h (3 Bft)
01.12.2014 20:04 2,7 C 1,7 C 86 % 1011,6 hPa 0,0 l/m 0 min 0 min 0 W/m 20,9 km/h (4 Bft)
01.12.2014 20:06 2,6 C 1,7 C 86 % 1011,6 hPa 0,0 l/m 0 min 0 min 0 W/m 27,2 km/h (4 Bft)
01.12.2014 20:08 2,6 C 1,7 C 86 % 1011,6 hPa 0,0 l/m 0 min 0 min 0 W/m 23,0 km/h (4 Bft)
01.12.2014 20:10 2,6 C 1,7 C 86 % 1011,6 hPa 0,0 l/m 0 min 0 min 0 W/m 23,0 km/h (4 Bft)
01.12.2014 20:12 2,6 C 1,7 C 86 % 1011,6 hPa 0,0 l/m 0 min 0 min 0 W/m 23,0 km/h (4 Bft)
01.12.2014 20:14 2,6 C 1,7 C 86 % 1011,5 hPa 0,0 l/m 0 min 0 min 0 W/m 18,8 km/h (3 Bft)
01.12.2014 20:16 2,6 C 1,7 C 86 % 1011,5 hPa 0,0 l/m 0 min 0 min 0 W/m 20,9 km/h (4 Bft)
01.12.2014 20:18 2,6 C 1,7 C 86 % 1011,5 hPa 0,0 l/m 0 min 0 min 0 W/m 25,1 km/h (4 Bft)
01.12.2014 20:20 2,6 C 1,7 C 86 % 1011,5 hPa 0,0 l/m 0 min 0 min 0 W/m 25,1 km/h (4 Bft)
01.12.2014 20:22 2,6 C 1,7 C 86 % 1011,5 hPa 0,0 l/m 0 min 0 min 0 W/m 16,7 km/h (3 Bft)
01.12.2014 20:24 2,6 C 1,7 C 86 % 1011,5 hPa 0,0 l/m 0 min 0 min 0 W/m 23,0 km/h (4 Bft)
01.12.2014 20:26 2,5 C 1,7 C 86 % 1011,5 hPa 0,0 l/m 0 min 0 min 0 W/m 23,0 km/h (4 Bft)
01.12.2014 20:28 2,5 C 1,7 C 86 % 1011,5 hPa 0,0 l/m 0 min 0 min 0 W/m 20,9 km/h (4 Bft)
01.12.2014 20:30 2,5 C 1,7 C 86 % 1011,6 hPa 0,0 l/m 0 min 0 min 0 W/m 18,8 km/h (3 Bft)
01.12.2014 20:32 2,5 C 1,7 C 86 % 1011,6 hPa 0,0 l/m 0 min 0 min 0 W/m 16,7 km/h (3 Bft)
01.12.2014 20:34 2,5 C 1,7 C 87 % 1011,6 hPa 0,0 l/m 0 min 0 min 0 W/m 12,6 km/h (3 Bft)
01.12.2014 20:36 2,5 C 1,7 C 87 % 1011,6 hPa 0,0 l/m 0 min 0 min 0 W/m 18,8 km/h (3 Bft)
01.12.2014 20:38 2,5 C 1,7 C 87 % 1011,5 hPa 0,0 l/m 0 min 0 min 0 W/m 20,9 km/h (4 Bft)
01.12.2014 20:40 2,5 C 1,7 C 87 % 1011,6 hPa 0,0 l/m 0 min 0 min 0 W/m 18,8 km/h (3 Bft)
01.12.2014 20:42 2,5 C 1,7 C 87 % 1011,6 hPa 0,0 l/m 0 min 0 min 0 W/m 25,1 km/h (4 Bft)
01.12.2014 20:44 2,5 C 1,7 C 87 % 1011,6 hPa 0,0 l/m 0 min 0 min 0 W/m 27,2 km/h (4 Bft)
01.12.2014 20:46 2,4 C 1,7 C 87 % 1011,7 hPa 0,0 l/m 0 min 0 min 0 W/m 18,8 km/h (3 Bft)
01.12.2014 20:48 2,4 C 1,7 C 87 % 1011,6 hPa 0,0 l/m 0 min 0 min 0 W/m 18,8 km/h (3 Bft)
01.12.2014 20:50 2,5 C 1,7 C 87 % 1011,6 hPa 0,0 l/m 0 min 0 min 0 W/m 25,1 km/h (4 Bft)
01.12.2014 20:52 2,4 C 1,7 C 87 % 1011,6 hPa 0,0 l/m 0 min 0 min 0 W/m 20,9 km/h (4 Bft)
01.12.2014 20:54 2,4 C 1,7 C 87 % 1011,6 hPa 0,0 l/m 0 min 0 min 0 W/m 20,9 km/h (4 Bft)
01.12.2014 20:56 2,4 C 1,7 C 87 % 1011,6 hPa 0,0 l/m 0 min 0 min 0 W/m 23,0 km/h (4 Bft)
01.12.2014 20:58 2,4 C 1,7 C 87 % 1011,5 hPa 0,0 l/m 0 min 0 min 0 W/m 23,0 km/h (4 Bft)
01.12.2014 21:00 2,4 C 1,7 C 87 % 1011,6 hPa 0,0 l/m 0 min 0 min 0 W/m 16,7 km/h (3 Bft)
01.12.2014 21:02 2,4 C 1,7 C 87 % 1011,5 hPa 0,0 l/m 0 min 0 min 0 W/m 20,9 km/h (4 Bft)
01.12.2014 21:04 2,4 C 1,7 C 87 % 1011,5 hPa 0,0 l/m 0 min 0 min 0 W/m 27,2 km/h (4 Bft)
01.12.2014 21:06 2,4 C 1,7 C 87 % 1011,5 hPa 0,0 l/m 0 min 0 min 0 W/m 20,9 km/h (4 Bft)
01.12.2014 21:08 2,4 C 1,7 C 87 % 1011,5 hPa 0,0 l/m 0 min 0 min 0 W/m 16,7 km/h (3 Bft)
01.12.2014 21:10 2,4 C 1,7 C 87 % 1011,6 hPa 0,0 l/m 0 min 0 min 0 W/m 16,7 km/h (3 Bft)
01.12.2014 21:12 2,4 C 1,7 C 87 % 1011,5 hPa 0,0 l/m 0 min 0 min 0 W/m 23,0 km/h (4 Bft)
01.12.2014 21:14 2,4 C 1,7 C 87 % 1011,5 hPa 0,0 l/m 0 min 0 min 0 W/m 23,0 km/h (4 Bft)
01.12.2014 21:16 2,4 C 1,7 C 87 % 1011,4 hPa 0,0 l/m 0 min 0 min 0 W/m 18,8 km/h (3 Bft)
01.12.2014 21:18 2,4 C 1,7 C 87 % 1011,4 hPa 0,0 l/m 0 min 0 min 0 W/m 14,6 km/h (3 Bft)
01.12.2014 21:20 2,4 C 1,7 C 87 % 1011,5 hPa 0,0 l/m 0 min 0 min 0 W/m 20,9 km/h (4 Bft)
01.12.2014 21:22 2,4 C 1,7 C 87 % 1011,5 hPa 0,0 l/m 0 min 0 min 0 W/m 27,2 km/h (4 Bft)
01.12.2014 21:24 2,3 C 1,7 C 87 % 1011,5 hPa 0,0 l/m 0 min 0 min 0 W/m 23,0 km/h (4 Bft)
01.12.2014 21:26 2,3 C 1,7 C 87 % 1011,5 hPa 0,0 l/m 0 min 0 min 0 W/m 23,0 km/h (4 Bft)
01.12.2014 21:28 2,3 C 1,7 C 88 % 1011,5 hPa 0,0 l/m 0 min 0 min 0 W/m 20,9 km/h (4 Bft)
01.12.2014 21:30 2,3 C 1,7 C 88 % 1011,5 hPa 0,0 l/m 0 min 0 min 0 W/m 23,0 km/h (4 Bft)
01.12.2014 21:32 2,3 C 1,7 C 88 % 1011,5 hPa 0,0 l/m 0 min 0 min 0 W/m 14,6 km/h (3 Bft)
01.12.2014 21:34 2,3 C 1,7 C 88 % 1011,6 hPa 0,0 l/m 0 min 0 min 0 W/m 23,0 km/h (4 Bft)
01.12.2014 21:36 2,3 C 1,7 C 88 % 1011,6 hPa 0,0 l/m 0 min 0 min 0 W/m 23,0 km/h (4 Bft)
01.12.2014 21:38 2,3 C 1,7 C 88 % 1011,6 hPa 0,0 l/m 0 min 0 min 0 W/m 16,7 km/h (3 Bft)
01.12.2014 21:40 2,3 C 1,7 C 88 % 1011,7 hPa 0,0 l/m 0 min 0 min 0 W/m 18,8 km/h (3 Bft)
01.12.2014 21:42 2,3 C 1,7 C 88 % 1011,5 hPa 0,0 l/m 0 min 0 min 0 W/m 18,8 km/h (3 Bft)
01.12.2014 21:44 2,3 C 1,7 C 88 % 1011,4 hPa 0,0 l/m 0 min 0 min 0 W/m 23,0 km/h (4 Bft)
01.12.2014 21:46 2,3 C 1,7 C 88 % 1011,5 hPa 0,0 l/m 0 min 0 min 0 W/m 10,5 km/h (2 Bft)
01.12.2014 21:48 2,3 C 1,7 C 88 % 1011,5 hPa 0,0 l/m 0 min 0 min 0 W/m 16,7 km/h (3 Bft)
01.12.2014 21:50 2,3 C 1,7 C 88 % 1011,5 hPa 0,0 l/m 0 min 0 min 0 W/m 14,6 km/h (3 Bft)
01.12.2014 21:52 2,3 C 1,7 C 88 % 1011,5 hPa 0,0 l/m 0 min 0 min 0 W/m 20,9 km/h (4 Bft)
01.12.2014 21:54 2,3 C 1,7 C 88 % 1011,5 hPa 0,0 l/m 0 min 0 min 0 W/m 16,7 km/h (3 Bft)
01.12.2014 21:56 2,3 C 1,7 C 88 % 1011,5 hPa 0,0 l/m 0 min 0 min 0 W/m 16,7 km/h (3 Bft)
01.12.2014 21:58 2,3 C 1,7 C 88 % 1011,5 hPa 0,0 l/m 0 min 0 min 0 W/m 16,7 km/h (3 Bft)
01.12.2014 22:00 2,3 C 1,7 C 88 % 1011,5 hPa 0,0 l/m 0 min 0 min 0 W/m 12,6 km/h (3 Bft)
01.12.2014 22:02 2,3 C 1,7 C 88 % 1011,5 hPa 0,0 l/m 0 min 0 min 0 W/m 14,6 km/h (3 Bft)
01.12.2014 22:04 2,3 C 1,7 C 88 % 1011,5 hPa 0,0 l/m 0 min 0 min 0 W/m 16,7 km/h (3 Bft)
01.12.2014 22:06 2,3 C 1,7 C 88 % 1011,6 hPa 0,0 l/m 0 min 0 min 0 W/m 18,8 km/h (3 Bft)
01.12.2014 22:08 2,3 C 1,7 C 88 % 1011,6 hPa 0,0 l/m 0 min 0 min 0 W/m 16,7 km/h (3 Bft)
01.12.2014 22:10 2,3 C 1,7 C 88 % 1011,5 hPa 0,0 l/m 0 min 0 min 0 W/m 18,8 km/h (3 Bft)
01.12.2014 22:12 2,3 C 1,7 C 88 % 1011,5 hPa 0,0 l/m 0 min 0 min 0 W/m 14,6 km/h (3 Bft)
01.12.2014 22:14 2,3 C 1,7 C 88 % 1011,5 hPa 0,0 l/m 0 min 0 min 0 W/m 10,5 km/h (2 Bft)
01.12.2014 22:16 2,3 C 1,7 C 88 % 1011,5 hPa 0,0 l/m 0 min 0 min 0 W/m 10,5 km/h (2 Bft)
01.12.2014 22:18 2,2 C 1,7 C 88 % 1011,4 hPa 0,0 l/m 0 min 0 min 0 W/m 18,8 km/h (3 Bft)
01.12.2014 22:20 2,2 C 1,7 C 88 % 1011,4 hPa 0,0 l/m 0 min 0 min 0 W/m 20,9 km/h (4 Bft)
01.12.2014 22:22 2,2 C 1,7 C 88 % 1011,4 hPa 0,0 l/m 0 min 0 min 0 W/m 18,8 km/h (3 Bft)
01.12.2014 22:24 2,2 C 1,7 C 88 % 1011,4 hPa 0,0 l/m 0 min 0 min 0 W/m 16,7 km/h (3 Bft)
01.12.2014 22:26 2,2 C 1,7 C 88 % 1011,5 hPa 0,0 l/m 0 min 0 min 0 W/m 16,7 km/h (3 Bft)
01.12.2014 22:28 2,2 C 1,7 C 88 % 1011,5 hPa 0,0 l/m 0 min 0 min 0 W/m 14,6 km/h (3 Bft)
01.12.2014 22:30 2,2 C 1,7 C 88 % 1011,5 hPa 0,0 l/m 0 min 0 min 0 W/m 18,8 km/h (3 Bft)
01.12.2014 22:32 2,2 C 1,7 C 88 % 1011,5 hPa 0,0 l/m 0 min 0 min 0 W/m 14,6 km/h (3 Bft)
01.12.2014 22:34 2,2 C 1,7 C 88 % 1011,6 hPa 0,0 l/m 0 min 0 min 0 W/m 14,6 km/h (3 Bft)
01.12.2014 22:36 2,2 C 1,7 C 88 % 1011,6 hPa 0,0 l/m 0 min 0 min 0 W/m 14,6 km/h (3 Bft)
01.12.2014 22:38 2,2 C 1,7 C 88 % 1011,5 hPa 0,0 l/m 0 min 0 min 0 W/m 18,8 km/h (3 Bft)
01.12.2014 22:40 2,2 C 1,7 C 88 % 1011,6 hPa 0,0 l/m 0 min 0 min 0 W/m 16,7 km/h (3 Bft)
01.12.2014 22:42 2,2 C 1,7 C 88 % 1011,6 hPa 0,0 l/m 0 min 0 min 0 W/m 14,6 km/h (3 Bft)
01.12.2014 22:44 2,2 C 1,7 C 88 % 1011,7 hPa 0,0 l/m 0 min 0 min 0 W/m 16,7 km/h (3 Bft)
01.12.2014 22:46 2,2 C 1,7 C 88 % 1011,6 hPa 0,0 l/m 0 min 0 min 0 W/m 23,0 km/h (4 Bft)
01.12.2014 22:48 2,2 C 1,7 C 88 % 1011,7 hPa 0,0 l/m 0 min 0 min 0 W/m 14,6 km/h (3 Bft)
01.12.2014 22:50 2,2 C 1,7 C 88 % 1011,6 hPa 0,0 l/m 0 min 0 min 0 W/m 10,5 km/h (2 Bft)
01.12.2014 22:52 2,2 C 1,7 C 88 % 1011,7 hPa 0,0 l/m 0 min 0 min 0 W/m 8,4 km/h (2 Bft)
01.12.2014 22:54 2,2 C 1,7 C 88 % 1011,7 hPa 0,0 l/m 0 min 0 min 0 W/m 14,6 km/h (3 Bft)
01.12.2014 22:56 2,2 C 1,7 C 88 % 1011,8 hPa 0,0 l/m 0 min 0 min 0 W/m 12,6 km/h (3 Bft)
01.12.2014 22:58 2,2 C 1,7 C 88 % 1011,6 hPa 0,0 l/m 0 min 0 min 0 W/m 16,7 km/h (3 Bft)
01.12.2014 23:00 2,1 C 1,1 C 88 % 1011,8 hPa 0,0 l/m 0 min 0 min 0 W/m 16,7 km/h (3 Bft)
01.12.2014 23:02 2,1 C 1,7 C 88 % 1011,6 hPa 0,0 l/m 0 min 0 min 0 W/m 14,6 km/h (3 Bft)
01.12.2014 23:04 2,1 C 1,7 C 88 % 1011,7 hPa 0,0 l/m 0 min 0 min 0 W/m 16,7 km/h (3 Bft)
01.12.2014 23:06 2,1 C 1,1 C 88 % 1011,7 hPa 0,0 l/m 0 min 0 min 0 W/m 8,4 km/h (2 Bft)
01.12.2014 23:08 2,1 C 1,1 C 88 % 1011,6 hPa 0,0 l/m 0 min 0 min 0 W/m 16,7 km/h (3 Bft)
01.12.2014 23:10 2,1 C 1,1 C 88 % 1011,6 hPa 0,0 l/m 0 min 0 min 0 W/m 18,8 km/h (3 Bft)
01.12.2014 23:12 2,1 C 1,1 C 88 % 1011,7 hPa 0,0 l/m 0 min 0 min 0 W/m 18,8 km/h (3 Bft)
01.12.2014 23:14 2,1 C 1,1 C 88 % 1011,6 hPa 0,0 l/m 0 min 0 min 0 W/m 12,6 km/h (3 Bft)
01.12.2014 23:16 2,1 C 1,1 C 88 % 1011,8 hPa 0,0 l/m 0 min 0 min 0 W/m 12,6 km/h (3 Bft)
01.12.2014 23:18 2,1 C 1,1 C 88 % 1011,7 hPa 0,0 l/m 0 min 0 min 0 W/m 16,7 km/h (3 Bft)
01.12.2014 23:20 2,1 C 1,1 C 88 % 1011,6 hPa 0,0 l/m 0 min 0 min 0 W/m 14,6 km/h (3 Bft)
01.12.2014 23:22 2,1 C 1,1 C 88 % 1011,7 hPa 0,0 l/m 0 min 0 min 0 W/m 10,5 km/h (2 Bft)
01.12.2014 23:24 2,1 C 1,1 C 88 % 1011,7 hPa 0,0 l/m 0 min 0 min 0 W/m 12,6 km/h (3 Bft)
01.12.2014 23:26 2,1 C 1,1 C 88 % 1011,7 hPa 0,0 l/m 0 min 0 min 0 W/m 14,6 km/h (3 Bft)
01.12.2014 23:28 2,1 C 1,1 C 88 % 1011,8 hPa 0,0 l/m 0 min 0 min 0 W/m 16,7 km/h (3 Bft)
01.12.2014 23:30 2,1 C 1,1 C 88 % 1011,8 hPa 0,0 l/m 0 min 0 min 0 W/m 14,6 km/h (3 Bft)
01.12.2014 23:32 2,1 C 1,1 C 88 % 1011,7 hPa 0,0 l/m 0 min 0 min 0 W/m 14,6 km/h (3 Bft)
01.12.2014 23:34 2,1 C 1,1 C 88 % 1011,7 hPa 0,0 l/m 0 min 0 min 0 W/m 20,9 km/h (4 Bft)
01.12.2014 23:36 2,1 C 1,1 C 88 % 1011,7 hPa 0,0 l/m 0 min 0 min 0 W/m 12,6 km/h (3 Bft)
01.12.2014 23:38 2,1 C 1,1 C 88 % 1011,7 hPa 0,0 l/m 0 min 0 min 0 W/m 10,5 km/h (2 Bft)
01.12.2014 23:40 2,1 C 1,1 C 88 % 1011,8 hPa 0,0 l/m 0 min 0 min 0 W/m 16,7 km/h (3 Bft)
01.12.2014 23:42 2,0 C 1,1 C 88 % 1011,8 hPa 0,0 l/m 0 min 0 min 0 W/m 14,6 km/h (3 Bft)
01.12.2014 23:44 2,1 C 1,1 C 88 % 1011,8 hPa 0,0 l/m 0 min 0 min 0 W/m 10,5 km/h (2 Bft)
01.12.2014 23:46 2,0 C 1,1 C 88 % 1011,9 hPa 0,0 l/m 0 min 0 min 0 W/m 14,6 km/h (3 Bft)
01.12.2014 23:48 2,0 C 1,1 C 88 % 1011,8 hPa 0,0 l/m 0 min 0 min 0 W/m 16,7 km/h (3 Bft)
01.12.2014 23:50 2,0 C 1,1 C 88 % 1011,8 hPa 0,0 l/m 0 min 0 min 0 W/m 12,6 km/h (3 Bft)
01.12.2014 23:52 2,0 C 1,1 C 89 % 1011,8 hPa 0,0 l/m 0 min 0 min 0 W/m 12,6 km/h (3 Bft)
01.12.2014 23:54 2,0 C 1,1 C 89 % 1011,8 hPa 0,0 l/m 0 min 0 min 0 W/m 14,6 km/h (3 Bft)
01.12.2014 23:56 1,9 C 1,1 C 89 % 1011,8 hPa 0,0 l/m 0 min 0 min 0 W/m 10,5 km/h (2 Bft)
01.12.2014 23:58 1,9 C 1,1 C 89 % 1011,9 hPa 0,0 l/m 0 min 0 min 0 W/m 10,5 km/h (2 Bft)
_ Min-Zeit 23:54 23:00 19:58 01:58 - - - - 07:28
Minimum _ 1,9 C 1,1 C 86 % 1010,5 hPa - - - - 4,2 km/h (1 Bft)
_ Max-Zeit 14:04 11:44 01:44 23:46 00:00 00:00 00:00 11:42 06:36
Maximum _ 4,1 C 3,3 C 94 % 1011,9 hPa 0,0 l/m 0 min 0 min 53 W/m 31,4 km/h
O (5 Bft)
Durchschnitt _ 3,1 C 2,3 C 90 % 1011,1 hPa #0,0 l/m #0 min. #0 min. 27 W/m 16,3 km/h (3 Bft)
© 2015 W. Hausmann